KC5DAQ-26 Weather Reports


time (UTC)temp
F
wind
direction
speed
knots
gust
knots
rain 1hr
in
rain 24hr
in
rain mn
in
humidity
%
barometer
mb
20260831034119 83 305 0.0 0.9 0.00 0.00 0.00 82 1018.0
20260831034017 83 305 0.0 0.9 0.00 0.00 0.00 82 1018.0
20260831033917 83 305 0.0 1.7 0.00 0.00 0.00 82 1018.0
20260831033818 83 305 0.0 1.7 0.00 0.00 0.00 82 1018.0
20260831033719 83 305 0.0 1.7 0.00 0.00 0.00 82 1018.0
20260831033618 83 305 0.0 1.7 0.00 0.00 0.00 82 1018.0
20260831033517 83 305 0.0 1.7 0.00 0.00 0.00 81 1018.0
20260831033419 83 305 0.0 1.7 0.00 0.00 0.00 81 1018.0
20260831033317 83 305 0.0 1.7 0.00 0.00 0.00 81 1018.0
20260831033218 83 305 0.0 1.7 0.00 0.00 0.00 81 1017.9
20260831033118 83 305 0.9 1.7 0.00 0.00 0.00 81 1018.0
20260831033017 83 305 0.9 1.7 0.00 0.00 0.00 81 1017.9
20260831032917 83 305 0.0 1.7 0.00 0.00 0.00 81 1017.9
20260831032818 83 305 0.0 1.7 0.00 0.00 0.00 81 1018.0
20260831032718 83 305 0.0 1.7 0.00 0.00 0.00 81 1018.0
20260831032617 83 305 0.0 1.7 0.00 0.00 0.00 81 1017.9
20260831032517 84 305 0.0 1.7 0.00 0.00 0.00 81 1017.8
20260831032417 84 305 0.0 1.7 0.00 0.00 0.00 81 1017.9
20260831032318 84 305 0.0 1.7 0.00 0.00 0.00 81 1017.8
20260831032217 84 305 0.0 1.7 0.00 0.00 0.00 81 1017.8
20260831032117 84 305 0.0 1.7 0.00 0.00 0.00 80 1017.9
20260831032018 84 305 0.0 1.7 0.00 0.00 0.00 80 1017.9
20260831031918 84 305 0.0 1.7 0.00 0.00 0.00 80 1017.9
20260831031818 84 305 0.0 1.7 0.00 0.00 0.00 80 1018.0
20260831031718 84 305 0.0 1.7 0.00 0.00 0.00 80 1018.0
20260831031618 84 305 0.0 1.7 0.00 0.00 0.00 80 1017.9
20260831031517 84 305 0.0 1.7 0.00 0.00 0.00 80 1017.9
20260831031417 84 305 0.0 1.7 0.00 0.00 0.00 80 1017.9
20260831031318 84 305 0.0 1.7 0.00 0.00 0.00 80 1017.9
20260831031217 84 305 0.0 1.7 0.00 0.00 0.00 79 1017.8
20260831031117 84 305 0.9 1.7 0.00 0.00 0.00 79 1017.9
20260831031019 84 305 0.0 1.7 0.00 0.00 0.00 79 1017.9
20260831030918 84 305 0.0 2.6 0.00 0.00 0.00 79 1017.9
20260831030817 84 305 0.0 2.6 0.00 0.00 0.00 79 1017.8
20260831030717 85 305 0.0 2.6 0.00 0.00 0.00 79 1017.8
20260831030619 85 305 0.0 2.6 0.00 0.00 0.00 79 1017.8
20260831030516 85 305 0.0 2.6 0.00 0.00 0.00 79 1017.7
20260831030418 85 305 0.0 2.6 0.00 0.00 0.00 79 1017.8
20260831030318 85 305 0.0 2.6 0.00 0.00 0.00 79 1017.7
20260831030217 85 305 0.0 2.6 0.00 0.00 0.00 79 1017.6
20260831030118 85 305 0.9 2.6 0.00 0.00 0.00 79 1017.7
20260831030020 85 305 0.9 2.6 0.00 0.00 0.00 79 1017.7
20260831025918 85 244 0.0 2.6 0.00 0.00 0.00 78 1017.7
20260831025817 85 244 0.0 2.6 0.00 0.00 0.00 78 1017.6
20260831025717 85 244 0.0 2.6 0.00 0.00 0.00 78 1017.6
20260831025616 85 244 0.0 2.6 0.00 0.00 0.00 78 1017.6
20260831025517 85 113 0.0 2.6 0.00 0.00 0.00 78 1017.5
20260831025417 85 113 0.0 2.6 0.00 0.00 0.00 78 1017.5
20260831025317 85 113 0.9 2.6 0.00 0.00 0.00 78 1017.5
20260831025218 85 113 0.0 2.6 0.00 0.00 0.00 78 1017.5
20260831025117 85 113 0.0 2.6 0.00 0.00 0.00 78 1017.5
20260831025017 85 113 0.0 2.6 0.00 0.00 0.00 78 1017.5
20260831024917 85 113 0.9 2.6 0.00 0.00 0.00 78 1017.4
20260831024817 85 113 0.9 2.6 0.00 0.00 0.00 78 1017.5
20260831024716 85 111 0.0 2.6 0.00 0.00 0.00 78 1017.5
20260831024617 85 111 0.0 2.6 0.00 0.00 0.00 77 1017.4
20260831024518 85 111 0.9 2.6 0.00 0.00 0.00 77 1017.4
20260831024417 85 111 0.9 2.6 0.00 0.00 0.00 77 1017.3
20260831024317 85 224 0.0 1.7 0.00 0.00 0.00 77 1017.4
20260831024217 85 298 0.0 1.7 0.00 0.00 0.00 77 1017.3
20260831024118 85 298 0.0 1.7 0.00 0.00 0.00 77 1017.3
20260831024017 85 298 0.0 3.5 0.00 0.00 0.00 77 1017.4
20260831023916 85 298 0.9 3.5 0.00 0.00 0.00 76 1017.3
20260831023819 85 298 0.0 3.5 0.00 0.00 0.00 76 1017.4
20260831023716 85 298 0.9 3.5 0.00 0.00 0.00 76 1017.4
20260831023616 85 298 0.9 3.5 0.00 0.00 0.00 76 1017.5
20260831023519 85 298 0.9 3.5 0.00 0.00 0.00 76 1017.5
20260831023416 85 298 0.9 3.5 0.00 0.00 0.00 76 1017.4
20260831023316 85 298 0.9 3.5 0.00 0.00 0.00 76 1017.4
20260831023217 85 299 1.7 3.5 0.00 0.00 0.00 76 1017.4
20260831023117 85 275 0.9 3.5 0.00 0.00 0.00 76 1017.3
20260831023017 85 190 0.0 2.6 0.00 0.00 0.00 76 1017.3
20260831022917 86 190 0.0 2.6 0.00 0.00 0.00 76 1017.3
20260831022818 86 190 0.9 2.6 0.00 0.00 0.00 76 1017.4
20260831022716 86 190 0.9 2.6 0.00 0.00 0.00 76 1017.2
20260831022617 86 190 0.0 3.5 0.00 0.00 0.00 75 1017.2
20260831022518 86 190 0.9 3.5 0.00 0.00 0.00 75 1017.2
20260831022418 86 190 0.0 3.5 0.00 0.00 0.00 75 1017.2
20260831022316 86 141 0.0 3.5 0.00 0.00 0.00 75 1017.1
20260831022216 86 141 0.0 3.5 0.00 0.00 0.00 75 1017.1
20260831022117 86 141 0.0 3.5 0.00 0.00 0.00 75 1017.2
20260831022017 86 141 0.9 3.5 0.00 0.00 0.00 75 1017.1
20260831021917 86 141 0.0 3.5 0.00 0.00 0.00 75 1017.2
20260831021817 86 128 0.9 3.5 0.00 0.00 0.00 75 1017.2
20260831021718 86 128 1.7 3.5 0.00 0.00 0.00 75 1017.0
20260831021616 86 128 1.7 3.5 0.00 0.00 0.00 75 1017.0
20260831021516 86 148 1.7 3.5 0.00 0.00 0.00 75 1016.9
20260831021419 86 147 0.9 3.5 0.00 0.00 0.00 75 1016.9
20260831021317 86 63 0.9 3.5 0.00 0.00 0.00 75 1016.9
20260831021216 86 63 0.9 3.5 0.00 0.00 0.00 74 1017.0
20260831021115 86 66 0.9 3.5 0.00 0.00 0.00 75 1017.0
20260831021016 86 63 0.9 3.5 0.00 0.00 0.00 74 1016.9
20260831020915 86 148 0.9 3.5 0.00 0.00 0.00 74 1016.9
20260831020815 86 151 1.7 3.5 0.00 0.00 0.00 74 1016.8
20260831020718 86 111 1.7 3.5 0.00 0.00 0.00 74 1016.9
20260831020617 86 128 0.9 3.5 0.00 0.00 0.00 73 1016.8
20260831020516 86 123 0.9 3.5 0.00 0.00 0.00 73 1016.7
20260831020416 86 186 0.0 3.5 0.00 0.00 0.00 73 1016.7
20260831020316 86 186 0.9 3.5 0.00 0.00 0.00 73 1016.8
20260831020217 86 188 0.9 3.5 0.00 0.00 0.00 73 1016.8
20260831020115 86 121 0.0 3.5 0.00 0.00 0.00 72 1016.8
20260831020016 86 121 0.9 4.3 0.00 0.00 0.00 73 1016.8
20260831015915 86 121 0.9 4.3 0.00 0.00 0.00 73 1016.8
20260831015816 86 62 0.0 4.3 0.00 0.00 0.00 72 1016.8
20260831015716 86 62 0.9 4.3 0.00 0.00 0.00 72 1016.8
20260831015616 86 62 0.9 4.3 0.00 0.00 0.00 72 1016.8
20260831015516 86 62 0.9 4.3 0.00 0.00 0.00 72 1016.9
20260831015415 86 62 0.9 4.3 0.00 0.00 0.00 72 1016.8
20260831015316 87 62 0.9 4.3 0.00 0.00 0.00 72 1016.8
20260831015215 87 62 1.7 4.3 0.00 0.00 0.00 72 1016.8
20260831015115 86 137 1.7 4.3 0.00 0.00 0.00 72 1016.8
20260831015016 87 31 1.7 4.3 0.00 0.00 0.00 72 1016.8
20260831014912 86 219 0.9 4.3 0.00 0.00 0.00 72 1016.8
20260831014805 86 231 0.9 4.3 0.00 0.00 0.00 72 1016.7
20260831014703 86 254 0.9 4.3 0.00 0.00 0.00 71 1016.8
20260831014602 87 251 0.0 4.3 0.00 0.00 0.00 71 1016.8
20260831014504 87 251 0.0 4.3 0.00 0.00 0.00 71 1016.8
20260831014402 87 251 0.9 4.3 0.00 0.00 0.00 71 1016.7
20260831014304 87 251 0.9 4.3 0.00 0.00 0.00 71 1016.8
20260831014202 87 255 1.7 4.3 0.00 0.00 0.00 70 1016.7
20260831014103 87 255 0.9 4.3 0.00 0.00 0.00 70 1016.8
20260831014002 87 154 0.0 2.6 0.00 0.00 0.00 70 1016.8
20260831013902 87 137 0.9 2.6 0.00 0.00 0.00 69 1016.8
20260831013805 87 137 0.9 2.6 0.00 0.00 0.00 69 1016.8
20260831013702 87 137 0.9 1.7 0.00 0.00 0.00 69 1016.7
20260831013601 87 137 0.9 1.7 0.00 0.00 0.00 69 1016.7
20260831013503 87 135 0.9 1.7 0.00 0.00 0.00 69 1016.8
20260831013403 87 135 0.9 1.7 0.00 0.00 0.00 69 1016.7
20260831013302 87 138 0.9 1.7 0.00 0.00 0.00 69 1016.7
20260831013203 87 137 0.0 1.7 0.00 0.00 0.00 69 1016.6
20260831013104 87 107 0.0 1.7 0.00 0.00 0.00 69 1016.7
20260831013003 87 107 0.0 1.7 0.00 0.00 0.00 68 1016.8
20260831012903 87 104 0.0 0.9 0.00 0.00 0.00 68 1016.7
20260831012802 87 104 0.0 0.9 0.00 0.00 0.00 68 1016.7
20260831012703 87 104 0.0 0.9 0.00 0.00 0.00 68 1016.5
20260831012603 87 104 0.0 1.7 0.00 0.00 0.00 68 1016.6
20260831012504 87 104 0.0 2.6 0.00 0.00 0.00 68 1016.5
20260831012405 87 104 0.0 2.6 0.00 0.00 0.00 68 1016.5
20260831012305 87 104 0.0 2.6 0.00 0.00 0.00 68 1016.5
20260831012203 87 104 0.0 2.6 0.00 0.00 0.00 68 1016.5
20260831012103 87 104 0.0 2.6 0.00 0.00 0.00 68 1016.6
20260831012003 87 104 0.0 2.6 0.00 0.00 0.00 67 1016.5
20260831011902 87 104 0.0 2.6 0.00 0.00 0.00 67 1016.6
20260831011803 87 104 0.0 2.6 0.00 0.00 0.00 67 1016.7
20260831011703 87 104 0.9 2.6 0.00 0.00 0.00 67 1016.6
20260831011602 87 106 0.9 2.6 0.00 0.00 0.00 68 1016.6
20260831011503 87 226 0.0 2.6 0.00 0.00 0.00 67 1016.7
20260831011403 87 226 0.0 3.5 0.00 0.00 0.00 67 1016.6
20260831011303 87 226 0.0 3.5 0.00 0.00 0.00 68 1016.6
20260831011202 87 226 0.0 3.5 0.00 0.00 0.00 67 1016.6
20260831011103 87 226 0.0 3.5 0.00 0.00 0.00 67 1016.5
20260831011003 87 226 0.9 3.5 0.00 0.00 0.00 67 1016.6
20260831010902 88 226 0.9 3.5 0.00 0.00 0.00 67 1016.6
20260831010802 88 226 0.9 3.5 0.00 0.00 0.00 67 1016.5
20260831010703 88 189 0.0 3.5 0.00 0.00 0.00 67 1016.6
20260831010603 88 189 0.9 3.5 0.00 0.00 0.00 67 1016.6
20260831010504 88 189 0.9 3.5 0.00 0.00 0.00 67 1016.6
20260831010404 88 106 0.9 1.7 0.00 0.00 0.00 67 1016.6
20260831010303 88 106 0.9 1.7 0.00 0.00 0.00 66 1016.5
20260831010203 88 106 0.9 1.7 0.00 0.00 0.00 66 1016.6
20260831010004 88 217 0.9 1.7 0.00 0.00 0.00 65 1016.5
20260831005903 88 228 0.9 1.7 0.00 0.00 0.00 65 1016.6
20260831005803 88 228 0.9 1.7 0.00 0.00 0.00 65 1016.5
20260831005704 88 228 0.9 1.7 0.00 0.00 0.00 65 1016.6
20260831005603 88 228 0.9 4.3 0.00 0.00 0.00 65 1016.5
20260831005502 88 228 0.9 4.3 0.00 0.00 0.00 65 1016.5
20260831005402 88 228 0.9 4.3 0.00 0.00 0.00 65 1016.5
20260831005306 88 228 0.9 4.3 0.00 0.00 0.00 65 1016.5
20260831005202 88 240 0.9 4.3 0.00 0.00 0.00 64 1016.4
20260831005102 88 106 0.9 4.3 0.00 0.00 0.00 64 1016.3
20260831005003 88 106 0.9 4.3 0.00 0.00 0.00 65 1016.4
20260831004902 88 106 0.9 4.3 0.00 0.00 0.00 64 1016.4
20260831004803 88 106 1.7 4.3 0.00 0.00 0.00 63 1016.4
20260831004702 88 106 1.7 4.3 0.00 0.00 0.00 64 1016.4
20260831004604 88 189 0.9 1.7 0.00 0.00 0.00 63 1016.4
20260831004502 88 189 1.7 1.7 0.00 0.00 0.00 63 1016.4
20260831004403 88 189 0.9 1.7 0.00 0.00 0.00 63 1016.4
20260831004303 89 189 0.9 1.7 0.00 0.00 0.00 62 1016.5
20260831004202 89 179 0.0 1.7 0.00 0.00 0.00 63 1016.4
20260831004102 89 179 0.0 1.7 0.00 0.00 0.00 62 1016.5
20260831004003 89 179 0.0 1.7 0.00 0.00 0.00 62 1016.4
20260831003903 89 179 0.0 1.7 0.00 0.00 0.00 62 1016.5
20260831003803 89 179 0.9 1.7 0.00 0.00 0.00 62 1016.5
20260831003702 89 179 0.9 1.7 0.00 0.00 0.00 61 1016.5
20260831003603 89 179 0.9 2.6 0.00 0.00 0.00 61 1016.4
20260831003503 89 179 0.9 2.6 0.00 0.00 0.00 60 1016.5
20260831003403 89 179 0.9 2.6 0.00 0.00 0.00 60 1016.4
20260831003304 89 179 0.9 2.6 0.00 0.00 0.00 60 1016.4
20260831003204 89 180 0.9 2.6 0.00 0.00 0.00 59 1016.5
20260831003102 89 180 0.0 2.6 0.00 0.00 0.00 59 1016.5
20260831003002 89 183 0.9 2.6 0.00 0.00 0.00 59 1016.5
20260831002904 89 183 0.9 2.6 0.00 0.00 0.00 60 1016.4
20260831002802 90 183 0.9 2.6 0.00 0.00 0.00 60 1016.4
20260831002702 90 183 0.9 2.6 0.00 0.00 0.00 59 1016.4
20260831002604 90 104 0.9 2.6 0.00 0.00 0.00 60 1016.5
20260831002503 90 104 0.9 2.6 0.00 0.00 0.00 59 1016.4
20260831002402 90 117 0.9 2.6 0.00 0.00 0.00 59 1016.4
20260831002305 90 137 0.9 2.6 0.00 0.00 0.00 58 1016.5
20260831002203 90 137 0.9 4.3 0.00 0.00 0.00 59 1016.5
20260831002103 90 137 0.9 4.3 0.00 0.00 0.00 58 1016.5
20260831002003 91 124 0.0 4.3 0.00 0.00 0.00 57 1016.5
20260831001903 91 124 0.0 4.3 0.00 0.00 0.00 59 1016.4
20260831001803 91 124 0.9 4.3 0.00 0.00 0.00 59 1016.5
20260831001702 91 124 0.9 4.3 0.00 0.00 0.00 56 1016.5
20260831001603 91 358 0.9 4.3 0.00 0.00 0.00 57 1016.5
20260831001503 91 358 1.7 4.3 0.00 0.00 0.00 56 1016.4
20260831001402 91 353 1.7 4.3 0.00 0.00 0.00 57 1016.3
20260831001302 91 45 0.9 4.3 0.00 0.00 0.00 56 1016.3
20260831001203 91 166 0.0 1.7 0.00 0.00 0.00 56 1016.3
20260831001103 91 166 0.0 1.7 0.00 0.00 0.00 56 1016.3
20260831001002 91 166 0.0 1.7 0.00 0.00 0.00 56 1016.4
20260831000904 91 192 0.0 1.7 0.00 0.00 0.00 55 1016.4
20260831000803 91 93 0.0 1.7 0.00 0.00 0.00 57 1016.3
20260831000703 92 92 0.0 1.7 0.00 0.00 0.00 56 1016.3
20260831000603 91 92 0.0 1.7 0.00 0.00 0.00 55 1016.4
20260831000505 91 92 0.9 1.7 0.00 0.00 0.00 55 1016.4
20260831000403 91 80 0.9 1.7 0.00 0.00 0.00 56 1016.4
20260831000303 91 79 0.9 3.5 0.00 0.00 0.00 55 1016.4
20260831000204 91 79 0.0 3.5 0.00 0.00 0.00 55 1016.4
20260831000002 92 86 0.0 3.5 0.00 0.00 0.00 55 1016.4
20260830235903 92 86 0.9 3.5 0.00 0.00 0.00 55 1016.4
20260830235803 92 93 0.9 3.5 0.00 0.00 0.00 54 1016.4
20260830235702 92 111 0.0 3.5 0.00 0.00 0.00 56 1016.4
20260830235603 92 110 0.0 3.5 0.00 0.00 0.00 54 1016.3
20260830235504 92 120 0.9 3.5 0.00 0.00 0.00 55 1016.3
20260830235402 92 125 0.9 3.5 0.00 0.00 0.00 56 1016.4
20260830235305 92 113 0.9 2.6 0.00 0.00 0.00 54 1016.4
20260830235204 92 45 0.9 2.6 0.00 0.00 0.00 56 1016.4
20260830235104 92 148 0.9 2.6 0.00 0.00 0.00 53 1016.3
20260830235003 92 148 0.9 2.6 0.00 0.00 0.00 53 1016.4
20260830234903 92 148 0.9 2.6 0.00 0.00 0.00 53 1016.4
20260830234738 92 148 0.9 2.6 0.00 0.00 0.00 53 1016.3
20260830234637 92 58 0.9 2.6 0.00 0.00 0.00 53 1016.4
20260830234536 93 59 0.0 3.5 0.00 0.00 0.00 55 1016.3
20260830234434 93 59 0.9 3.5 0.00 0.00 0.00 53 1016.4
20260830234332 93 49 0.9 3.5 0.00 0.00 0.00 52 1016.4
20260830234230 93 37 0.9 3.5 0.00 0.00 0.00 54 1016.4
20260830234131 93 203 0.0 3.5 0.00 0.00 0.00 54 1016.4
20260830234032 93 202 0.9 3.5 0.00 0.00 0.00 54 1016.3
20260830233931 93 203 0.9 3.5 0.00 0.00 0.00 53 1016.3
20260830233831 93 104 0.9 3.5 0.00 0.00 0.00 53 1016.3
20260830233733 93 104 0.9 3.5 0.00 0.00 0.00 53 1016.2
20260830233631 93 228 0.9 3.5 0.00 0.00 0.00 52 1016.3
20260830233532 93 82 0.0 2.6 0.00 0.00 0.00 53 1016.2
20260830233431 93 102 0.0 3.5 0.00 0.00 0.00 53 1016.2
20260830233331 93 102 0.0 3.5 0.00 0.00 0.00 52 1016.2
20260830233233 93 102 0.0 3.5 0.00 0.00 0.00 52 1016.2
20260830233131 93 102 0.9 3.5 0.00 0.00 0.00 52 1016.3
20260830233032 93 71 0.9 3.5 0.00 0.00 0.00 53 1016.2
20260830232931 93 68 1.7 3.5 0.00 0.00 0.00 52 1016.4
20260830232831 93 51 1.7 3.5 0.00 0.00 0.00 52 1016.2
20260830232733 93 59 0.9 3.5 0.00 0.00 0.00 53 1016.2
20260830232633 93 62 0.9 3.5 0.00 0.00 0.00 53 1016.3
20260830232532 93 62 0.9 3.5 0.00 0.00 0.00 53 1016.4
20260830232431 93 354 0.0 3.5 0.00 0.00 0.00 52 1016.3
20260830232333 93 353 0.0 3.5 0.00 0.00 0.00 55 1016.2
20260830232231 93 353 0.0 3.5 0.00 0.00 0.00 54 1016.3
20260830232132 93 353 0.0 3.5 0.00 0.00 0.00 53 1016.3
20260830232032 93 334 0.0 3.5 0.00 0.00 0.00 53 1016.3
20260830231932 93 331 0.9 3.5 0.00 0.00 0.00 54 1016.2
20260830231831 93 331 0.9 3.5 0.00 0.00 0.00 54 1016.3
20260830231732 94 238 0.9 3.5 0.00 0.00 0.00 52 1016.4
20260830231633 94 130 0.9 3.5 0.00 0.00 0.00 53 1016.2
20260830231532 94 0 1.7 3.5 0.00 0.00 0.00 51 1016.1
20260830231432 94 20 1.7 3.5 0.00 0.00 0.00 52 1016.1
20260830231333 94 152 0.9 3.5 0.00 0.00 0.00 52 1016.1
20260830231233 94 152 0.9 3.5 0.00 0.00 0.00 52 1016.2
20260830231113 94 152 0.9 3.5 0.00 0.00 0.00 52 1016.2
20260830231003 94 90 0.9 3.5 0.00 0.00 0.00 52 1016.2
20260830230902 94 176 0.9 3.5 0.00 0.00 0.00 54 1016.3
20260830230803 94 199 0.9 3.5 0.00 0.00 0.00 56 1016.3
20260830230703 94 62 1.7 3.5 0.00 0.00 0.00 55 1016.4
20260830230601 94 96 0.9 3.5 0.00 0.00 0.00 57 1016.3
20260830230503 94 124 0.0 2.6 0.00 0.00 0.00 57 1016.3
20260830230403 94 124 0.0 2.6 0.00 0.00 0.00 57 1016.3
20260830230302 94 100 0.0 2.6 0.00 0.00 0.00 55 1016.3
20260830230203 94 100 0.0 2.6 0.00 0.00 0.00 56 1016.3
20260830230103 94 54 0.0 2.6 0.00 0.00 0.00 55 1016.2
20260830230004 94 54 0.9 2.6 0.00 0.00 0.00 55 1016.3
20260830225903 94 54 0.9 2.6 0.00 0.00 0.00 55 1016.3
20260830225801 94 128 0.9 2.6 0.00 0.00 0.00 56 1016.3
20260830225703 94 178 0.9 2.6 0.00 0.00 0.00 55 1016.3
20260830225603 94 178 0.9 2.6 0.00 0.00 0.00 56 1016.3
20260830225503 94 78 0.9 2.6 0.00 0.00 0.00 55 1016.3
20260830225404 94 62 0.9 2.6 0.00 0.00 0.00 55 1016.3
20260830225305 94 185 0.0 2.6 0.00 0.00 0.00 54 1016.3
20260830225202 94 245 0.0 2.6 0.00 0.00 0.00 54 1016.3
20260830225104 94 93 0.9 2.6 0.00 0.00 0.00 54 1016.3
20260830225005 94 87 0.9 2.6 0.00 0.00 0.00 54 1016.2
20260830224902 95 123 0.9 2.6 0.00 0.00 0.00 55 1016.3
20260830224802 95 97 0.0 3.5 0.00 0.00 0.00 55 1016.3
20260830224703 95 97 0.9 3.5 0.00 0.00 0.00 54 1016.3
20260830224603 95 97 0.9 3.5 0.00 0.00 0.00 55 1016.3
20260830224502 95 82 0.0 3.5 0.00 0.00 0.00 55 1016.3
20260830224402 95 71 0.9 3.5 0.00 0.00 0.00 56 1016.3
20260830224304 95 63 0.9 3.5 0.00 0.00 0.00 58 1016.3
20260830224202 95 63 0.9 3.5 0.00 0.00 0.00 56 1016.3
20260830224102 95 75 0.0 3.5 0.00 0.00 0.00 56 1016.3
20260830224005 95 75 0.9 3.5 0.00 0.00 0.00 56 1016.4
20260830223902 95 76 1.7 3.5 0.00 0.00 0.00 57 1016.3
20260830223801 95 111 1.7 3.5 0.00 0.00 0.00 55 1016.3
20260830223703 95 69 1.7 3.5 0.00 0.00 0.00 55 1016.3
20260830223602 95 131 0.9 3.5 0.00 0.00 0.00 56 1016.2
20260830223503 95 87 0.9 3.5 0.00 0.00 0.00 56 1016.2
20260830223403 95 94 0.9 3.5 0.00 0.00 0.00 55 1016.3
20260830223303 95 58 0.9 3.5 0.00 0.00 0.00 56 1016.2
20260830223202 95 114 0.9 2.6 0.00 0.00 0.00 57 1016.2
20260830223104 95 114 0.9 2.6 0.00 0.00 0.00 56 1016.3
20260830223003 95 52 0.0 1.7 0.00 0.00 0.00 56 1016.2
20260830222902 95 52 0.0 1.7 0.00 0.00 0.00 56 1016.2
20260830222802 95 52 0.0 2.6 0.00 0.00 0.00 57 1016.2
20260830222702 95 52 0.0 2.6 0.00 0.00 0.00 57 1016.2
20260830222603 95 52 0.0 2.6 0.00 0.00 0.00 55 1016.2
20260830222503 95 72 0.0 2.6 0.00 0.00 0.00 59 1016.2
20260830222402 95 94 0.0 2.6 0.00 0.00 0.00 55 1016.3
20260830222306 95 94 0.0 2.6 0.00 0.00 0.00 55 1016.2
20260830222204 94 94 0.9 2.6 0.00 0.00 0.00 55 1016.2
20260830222102 94 94 0.9 2.6 0.00 0.00 0.00 56 1016.2
20260830222003 94 121 1.7 2.6 0.00 0.00 0.00 57 1016.2
20260830221904 94 144 1.7 2.6 0.00 0.00 0.00 57 1016.2
20260830221804 93 149 1.7 2.6 0.00 0.00 0.00 61 1016.2
20260830221703 93 127 0.0 0.9 0.00 0.00 0.00 61 1016.2
20260830221603 93 127 0.0 0.9 0.00 0.00 0.00 61 1016.2
20260830221504 93 127 0.0 0.9 0.00 0.00 0.00 61 1016.3
20260830221403 93 127 0.0 0.9 0.00 0.00 0.00 61 1016.3
20260830221304 93 127 0.0 1.7 0.00 0.00 0.00 61 1016.3
20260830221203 93 127 0.0 1.7 0.00 0.00 0.00 62 1016.2
20260830221102 92 127 0.0 1.7 0.00 0.00 0.00 60 1016.3
20260830221004 92 127 0.0 1.7 0.00 0.00 0.00 59 1016.3
20260830220903 92 127 0.0 1.7 0.00 0.00 0.00 62 1016.3
20260830220802 92 125 0.0 1.7 0.00 0.00 0.00 60 1016.2
20260830220702 93 125 0.0 1.7 0.00 0.00 0.00 62 1016.3
20260830220603 93 125 0.0 2.6 0.00 0.00 0.00 62 1016.3
20260830220504 93 125 0.0 3.5 0.00 0.00 0.00 61 1016.4
20260830220403 94 127 0.0 3.5 0.00 0.00 0.00 61 1016.3
20260830220302 94 135 0.0 3.5 0.00 0.00 0.00 61 1016.3
20260830220204 94 135 0.0 3.5 0.00 0.00 0.00 59 1016.2
20260830220003 94 124 0.0 3.5 0.00 0.00 0.00 59 1016.3
20260830215904 94 124 0.0 3.5 0.00 0.00 0.00 58 1016.3
20260830215803 94 124 0.0 3.5 0.00 0.00 0.00 56 1016.2
20260830215702 94 128 0.9 3.5 0.00 0.00 0.00 56 1016.2
20260830215604 94 135 0.9 3.5 0.00 0.00 0.00 57 1016.3
20260830215503 94 135 0.0 3.5 0.00 0.00 0.00 58 1016.2
20260830215403 94 186 0.0 3.5 0.00 0.00 0.00 56 1016.3
20260830215305 94 188 0.9 3.5 0.00 0.00 0.00 61 1016.3
20260830215204 95 186 0.9 3.5 0.00 0.00 0.00 58 1016.3
20260830215103 95 69 0.0 4.3 0.00 0.00 0.00 55 1016.2
20260830215004 95 69 0.0 4.3 0.00 0.00 0.00 56 1016.2
20260830214903 95 69 0.9 4.3 0.00 0.00 0.00 55 1016.1
20260830214802 95 68 0.9 4.3 0.00 0.00 0.00 54 1016.2
20260830214703 95 116 0.9 4.3 0.00 0.00 0.00 54 1016.2
20260830214603 95 116 1.7 4.3 0.00 0.00 0.00 58 1016.2
20260830214503 94 103 1.7 4.3 0.00 0.00 0.00 55 1016.2
20260830214403 94 73 0.9 4.3 0.00 0.00 0.00 58 1016.2
20260830214302 94 107 0.9 4.3 0.00 0.00 0.00 58 1016.1
20260830214203 94 107 0.9 4.3 0.00 0.00 0.00 56 1016.3
20260830214104 94 114 0.9 3.5 0.00 0.00 0.00 58 1016.3
20260830214004 94 117 0.0 3.5 0.00 0.00 0.00 57 1016.3
20260830213902 94 128 0.0 3.5 0.00 0.00 0.00 58 1016.3
20260830213803 94 128 0.9 3.5 0.00 0.00 0.00 57 1016.3
20260830213703 94 128 0.0 3.5 0.00 0.00 0.00 57 1016.3
20260830213603 94 124 0.0 3.5 0.00 0.00 0.00 57 1016.3
20260830213504 95 124 0.0 3.5 0.00 0.00 0.00 55 1016.3
20260830213403 95 124 0.9 3.5 0.00 0.00 0.00 55 1016.4
20260830213302 95 125 0.9 4.3 0.00 0.00 0.00 55 1016.4
20260830213203 95 76 0.0 4.3 0.00 0.00 0.00 54 1016.4
20260830213103 96 44 0.9 6.1 0.00 0.00 0.00 54 1016.5
20260830213002 96 44 0.9 6.1 0.00 0.00 0.00 53 1016.5
20260830212902 96 38 0.9 6.1 0.00 0.00 0.00 52 1016.5
20260830212805 96 32 0.9 6.1 0.00 0.00 0.00 53 1016.5
20260830212701 97 44 0.9 6.1 0.00 0.00 0.00 54 1016.5
20260830212602 97 45 0.9 7.8 0.00 0.00 0.00 53 1016.4
20260830212503 97 80 1.7 7.8 0.00 0.00 0.00 53 1016.4
20260830212402 97 133 1.7 7.8 0.00 0.00 0.00 52 1016.4
20260830212305 97 63 2.6 7.8 0.00 0.00 0.00 52 1016.3
20260830212202 97 86 2.6 7.8 0.00 0.00 0.00 51 1016.4
20260830212103 97 71 1.7 7.8 0.00 0.00 0.00 53 1016.4
20260830212003 97 66 0.9 7.8 0.00 0.00 0.00 54 1016.5
20260830211902 97 66 2.6 7.8 0.00 0.00 0.00 53 1016.5
20260830211804 98 96 3.5 7.8 0.00 0.00 0.00 54 1016.4
20260830211702 97 63 2.6 7.8 0.00 0.00 0.00 53 1016.5
20260830211602 97 61 0.9 2.6 0.00 0.00 0.00 51 1016.6
20260830211502 97 137 0.0 2.6 0.00 0.00 0.00 50 1016.5
20260830211403 97 162 0.0 2.6 0.00 0.00 0.00 52 1016.6
20260830211302 96 162 0.0 2.6 0.00 0.00 0.00 54 1016.6
20260830211202 96 162 0.9 2.6 0.00 0.00 0.00 52 1016.6
20260830211104 96 162 0.9 2.6 0.00 0.00 0.00 54 1016.6
20260830211003 96 162 1.7 2.6 0.00 0.00 0.00 52 1016.6
20260830210903 96 162 1.7 2.6 0.00 0.00 0.00 54 1016.7
20260830210803 96 162 0.9 2.6 0.00 0.00 0.00 54 1016.7
20260830210704 96 144 0.9 2.6 0.00 0.00 0.00 53 1016.7
20260830210602 96 144 0.9 2.6 0.00 0.00 0.00 54 1016.7
20260830210501 96 142 0.9 1.7 0.00 0.00 0.00 50 1016.8
20260830210403 96 86 0.9 1.7 0.00 0.00 0.00 53 1016.8
20260830210302 96 86 0.9 3.5 0.00 0.00 0.00 53 1016.9
20260830210203 96 83 1.7 3.5 0.00 0.00 0.00 52 1016.8
20260830210104 95 118 0.0 3.5 0.00 0.00 0.00 56 1016.8
20260830210004 95 118 0.0 3.5 0.00 0.00 0.00 56 1016.8
20260830205904 95 118 0.0 3.5 0.00 0.00 0.00 56 1016.9
20260830205801 95 118 0.0 3.5 0.00 0.00 0.00 56 1016.9
20260830205704 95 118 0.0 3.5 0.00 0.00 0.00 54 1016.9
20260830205602 95 118 0.0 3.5 0.00 0.00 0.00 54 1016.9
20260830205502 95 118 0.9 3.5 0.00 0.00 0.00 52 1016.9
20260830205404 95 118 0.9 3.5 0.00 0.00 0.00 52 1016.9
20260830205305 95 41 0.0 1.7 0.00 0.00 0.00 54 1016.9
20260830205202 95 41 0.0 1.7 0.00 0.00 0.00 53 1016.9
20260830205105 96 41 0.0 1.7 0.00 0.00 0.00 54 1016.9
20260830205005 96 41 0.0 1.7 0.00 0.00 0.00 54 1016.9
20260830204902 96 41 0.0 1.7 0.00 0.00 0.00 54 1016.9
20260830204802 96 41 0.0 1.7 0.00 0.00 0.00 55 1016.9
20260830204704 96 41 0.9 3.5 0.00 0.00 0.00 53 1017.0
20260830204602 96 41 0.9 3.5 0.00 0.00 0.00 52 1017.0
20260830204503 96 41 0.0 3.5 0.00 0.00 0.00 54 1017.0
20260830204403 96 41 0.0 3.5 0.00 0.00 0.00 52 1017.0
20260830204302 97 41 0.0 3.5 0.00 0.00 0.00 51 1017.0
20260830204202 97 41 0.0 3.5 0.00 0.00 0.00 51 1017.0
20260830204103 97 41 0.9 4.3 0.00 0.00 0.00 50 1017.1
20260830204004 98 39 0.9 7.8 0.00 0.00 0.00 53 1017.1
20260830203902 98 34 0.9 7.8 0.00 0.00 0.00 54 1017.0
20260830203804 98 62 0.9 7.8 0.00 0.00 0.00 50 1017.1
20260830203704 98 72 0.9 7.8 0.00 0.00 0.00 50 1017.1
20260830203602 98 192 0.0 7.8 0.00 0.00 0.00 50 1017.1
20260830203502 98 204 0.9 7.8 0.00 0.00 0.00 50 1017.2
20260830203402 98 265 1.7 7.8 0.00 0.00 0.00 49 1017.2
20260830203303 98 257 2.6 7.8 0.00 0.00 0.00 50 1017.2
20260830203202 98 293 3.5 7.8 0.00 0.00 0.00 49 1017.2
20260830203102 98 306 2.6 7.8 0.00 0.00 0.00 51 1017.2
20260830203004 98 68 0.9 2.6 0.00 0.00 0.00 50 1017.2
20260830202903 98 86 0.0 2.6 0.00 0.00 0.00 53 1017.2
20260830202802 98 71 0.0 2.6 0.00 0.00 0.00 54 1017.2
20260830202705 97 71 0.9 4.3 0.00 0.00 0.00 52 1017.3
20260830202603 97 71 0.0 4.3 0.00 0.00 0.00 51 1017.2
20260830202502 97 71 0.0 4.3 0.00 0.00 0.00 52 1017.2
20260830202404 97 71 0.9 4.3 0.00 0.00 0.00 52 1017.3
20260830202305 97 71 0.9 4.3 0.00 0.00 0.00 51 1017.4
20260830202202 97 71 0.9 4.3 0.00 0.00 0.00 51 1017.4
20260830202102 97 71 0.9 4.3 0.00 0.00 0.00 51 1017.4
20260830202004 97 59 0.9 4.3 0.00 0.00 0.00 52 1017.4
20260830201902 97 58 0.9 4.3 0.00 0.00 0.00 51 1017.4
20260830201802 97 111 0.9 4.3 0.00 0.00 0.00 51 1017.4
20260830201702 97 169 0.9 5.2 0.00 0.00 0.00 51 1017.4
20260830201604 97 172 0.9 5.2 0.00 0.00 0.00 50 1017.4
20260830201502 97 175 0.0 5.2 0.00 0.00 0.00 53 1017.4
20260830201402 97 175 0.0 5.2 0.00 0.00 0.00 52 1017.3
20260830201304 96 175 0.9 5.2 0.00 0.00 0.00 51 1017.4
20260830201203 96 175 0.9 5.2 0.00 0.00 0.00 51 1017.5
20260830201102 96 113 0.9 5.2 0.00 0.00 0.00 51 1017.5
20260830201001 96 113 0.9 5.2 0.00 0.00 0.00 51 1017.4
20260830200904 96 61 1.7 5.2 0.00 0.00 0.00 55 1017.5
20260830200802 96 94 2.6 5.2 0.00 0.00 0.00 52 1017.5
20260830200702 96 58 1.7 5.2 0.00 0.00 0.00 52 1017.5
20260830200603 96 62 1.7 5.2 0.00 0.00 0.00 51 1017.6
20260830200502 96 61 2.6 5.2 0.00 0.00 0.00 51 1017.6
20260830200403 97 65 2.6 4.3 0.00 0.00 0.00 51 1017.5
20260830200303 97 63 2.6 4.3 0.00 0.00 0.00 51 1017.6
20260830200203 97 65 2.6 4.3 0.00 0.00 0.00 52 1017.6
20260830200002 97 80 1.7 3.5 0.00 0.00 0.00 51 1017.6
20260830195903 97 83 1.7 3.5 0.00 0.00 0.00 51 1017.6
20260830195804 97 204 1.7 3.5 0.00 0.00 0.00 51 1017.6
20260830195702 97 204 1.7 3.5 0.00 0.00 0.00 51 1017.7
20260830195604 97 149 0.9 3.5 0.00 0.00 0.00 57 1017.7
20260830195503 97 151 0.9 3.5 0.00 0.00 0.00 55 1017.7
20260830195401 97 151 1.7 3.5 0.00 0.00 0.00 53 1017.7
20260830195305 97 151 1.7 3.5 0.00 0.00 0.00 52 1017.6
20260830195203 97 54 1.7 3.5 0.00 0.00 0.00 51 1017.7
20260830195102 96 68 1.7 3.5 0.00 0.00 0.00 54 1017.7
20260830195002 96 68 1.7 4.3 0.00 0.00 0.00 54 1017.6
20260830194903 96 66 0.9 4.3 0.00 0.00 0.00 54 1017.6
20260830194803 95 66 0.0 5.2 0.00 0.00 0.00 54 1017.6
20260830194702 95 66 0.0 5.2 0.00 0.00 0.00 55 1017.7
20260830194604 95 66 0.9 5.2 0.00 0.00 0.00 54 1017.7
20260830194504 95 66 0.9 5.2 0.00 0.00 0.00 53 1017.7
20260830194402 95 66 1.7 5.2 0.00 0.00 0.00 53 1017.7
20260830194302 96 66 1.7 5.2 0.00 0.00 0.00 53 1017.8
20260830194203 96 68 1.7 5.2 0.00 0.00 0.00 52 1017.8
20260830194102 96 65 3.5 5.2 0.00 0.00 0.00 55 1017.9
20260830194002 96 48 3.5 5.2 0.00 0.00 0.00 52 1018.0
20260830193904 96 52 2.6 5.2 0.00 0.00 0.00 53 1018.0
20260830193802 96 0 1.7 3.5 0.00 0.00 0.00 53 1018.0
20260830193702 96 357 1.7 3.5 0.00 0.00 0.00 53 1018.0
20260830193603 96 216 1.7 3.5 0.00 0.00 0.00 54 1018.0
20260830193504 96 216 1.7 4.3 0.00 0.00 0.00 53 1018.1
20260830193403 96 268 0.9 4.3 0.00 0.00 0.00 53 1018.1
20260830193302 96 268 0.9 4.3 0.00 0.00 0.00 57 1018.1
20260830193203 96 268 1.7 4.3 0.00 0.00 0.00 55 1018.1
20260830193101 96 268 0.9 4.3 0.00 0.00 0.00 53 1018.1
20260830193003 96 266 0.9 4.3 0.00 0.00 0.00 55 1018.2
20260830192904 96 269 1.7 4.3 0.00 0.00 0.00 54 1018.2
20260830192803 96 269 2.6 7.8 0.00 0.00 0.00 54 1018.2
20260830192702 96 269 3.5 7.8 0.00 0.00 0.00 53 1018.1
20260830192603 96 268 3.5 7.8 0.00 0.00 0.00 54 1018.2
20260830192505 96 276 2.6 7.8 0.00 0.00 0.00 53 1018.2
20260830192401 96 350 1.7 7.8 0.00 0.00 0.00 54 1018.2
20260830192305 96 73 0.9 7.8 0.00 0.00 0.00 54 1018.2
20260830192203 95 73 1.7 7.8 0.00 0.00 0.00 54 1018.3
20260830192102 95 73 1.7 7.8 0.00 0.00 0.00 53 1018.4
20260830192002 96 75 2.6 7.8 0.00 0.00 0.00 53 1018.3
20260830191859 96 103 1.7 7.8 0.00 0.00 0.00 56 1018.4
20260830191758 96 44 1.7 5.2 0.00 0.00 0.00 54 1018.3
20260830191656 96 44 1.7 5.2 0.00 0.00 0.00 53 1018.3
20260830191554 95 266 1.7 5.2 0.00 0.00 0.00 55 1018.4
20260830191453 95 268 0.9 5.2 0.00 0.00 0.00 55 1018.5
20260830191352 95 268 0.0 5.2 0.00 0.00 0.00 55 1018.4
20260830191250 95 268 0.0 5.2 0.00 0.00 0.00 55 1018.4
20260830191148 95 268 0.9 5.2 0.00 0.00 0.00 55 1018.5
20260830191047 95 268 1.7 5.2 0.00 0.00 0.00 55 1018.5
20260830190947 95 268 2.6 5.2 0.00 0.00 0.00 56 1018.5
20260830190844 95 268 1.7 5.2 0.00 0.00 0.00 57 1018.5
20260830190742 95 254 0.9 3.5 0.00 0.00 0.00 56 1018.5
20260830190641 95 254 0.9 3.5 0.00 0.00 0.00 55 1018.6
20260830190540 95 254 0.9 3.5 0.00 0.00 0.00 55 1018.6
20260830190440 95 254 1.7 3.5 0.00 0.00 0.00 56 1018.6
20260830190337 95 254 2.6 3.5 0.00 0.00 0.00 55 1018.6
20260830190235 95 254 1.7 4.3 0.00 0.00 0.00 55 1018.7
20260830190134 95 252 0.9 4.3 0.00 0.00 0.00 55 1018.6
20260830190033 95 252 1.7 4.3 0.00 0.00 0.00 56 1018.7
20260830185931 95 252 0.9 4.3 0.00 0.00 0.00 55 1018.7
20260830185831 95 252 1.7 4.3 0.00 0.00 0.00 56 1018.7
20260830185733 95 275 1.7 4.3 0.00 0.00 0.00 56 1018.7
20260830185632 95 272 2.6 4.3 0.00 0.00 0.00 56 1018.7
20260830185531 95 274 2.6 4.3 0.00 0.00 0.00 56 1018.8
20260830185430 95 274 2.6 4.3 0.00 0.00 0.00 57 1018.8
20260830185330 95 275 2.6 4.3 0.00 0.00 0.00 57 1018.8
20260830185228 95 275 2.6 6.1 0.00 0.00 0.00 57 1018.8
20260830185123 95 275 2.6 6.1 0.00 0.00 0.00 57 1018.8
20260830185023 94 281 1.7 6.1 0.00 0.00 0.00 57 1018.9
20260830184921 94 281 1.7 6.1 0.00 0.00 0.00 56 1018.9
20260830184820 94 281 3.5 6.1 0.00 0.00 0.00 56 1018.9
20260830184718 95 281 2.6 6.1 0.00 0.00 0.00 56 1018.9
20260830184616 94 288 1.7 6.1 0.00 0.00 0.00 57 1018.9
20260830184515 94 286 2.6 6.1 0.00 0.00 0.00 57 1018.9
20260830184413 94 286 4.3 6.1 0.00 0.00 0.00 56 1018.9
20260830184311 94 289 4.3 6.1 0.00 0.00 0.00 57 1018.9
20260830184211 94 286 3.5 5.2 0.00 0.00 0.00 57 1018.9
20260830184109 94 289 3.5 5.2 0.00 0.00 0.00 57 1018.9
20260830184008 94 279 3.5 5.2 0.00 0.00 0.00 58 1018.9
20260830183907 94 276 1.7 5.2 0.00 0.00 0.00 58 1019.0
20260830183805 94 274 0.9 5.2 0.00 0.00 0.00 59 1019.0
20260830183705 94 274 1.7 5.2 0.00 0.00 0.00 59 1019.0
20260830183607 94 274 2.6 5.2 0.00 0.00 0.00 59 1019.1
20260830183505 94 275 3.5 5.2 0.00 0.00 0.00 58 1019.0
20260830183405 94 275 3.5 5.2 0.00 0.00 0.00 57 1019.0
20260830183305 94 278 3.5 5.2 0.00 0.00 0.00 59 1019.0
20260830183205 94 279 3.5 5.2 0.00 0.00 0.00 60 1019.0
20260830183106 94 238 1.7 4.3 0.00 0.00 0.00 59 1019.0
20260830183006 94 217 1.7 4.3 0.00 0.00 0.00 59 1019.1
20260830182906 94 216 2.6 4.3 0.00 0.00 0.00 58 1019.2
20260830182806 94 116 1.7 4.3 0.00 0.00 0.00 59 1019.1
20260830182705 94 45 1.7 3.5 0.00 0.00 0.00 59 1019.1
20260830182603 94 45 1.7 3.5 0.00 0.00 0.00 59 1019.2
20260830182503 94 39 1.7 2.6 0.00 0.00 0.00 60 1019.1
20260830182404 93 39 0.9 2.6 0.00 0.00 0.00 60 1019.3
20260830182306 93 39 0.9 2.6 0.00 0.00 0.00 61 1019.3
20260830182200 94 39 0.9 2.6 0.00 0.00 0.00 60 1019.3
20260830182100 94 39 1.7 2.6 0.00 0.00 0.00 60 1019.2
20260830181958 94 39 1.7 2.6 0.00 0.00 0.00 60 1019.3
20260830181857 94 39 0.9 2.6 0.00 0.00 0.00 62 1019.3
20260830181755 93 39 0.9 2.6 0.00 0.00 0.00 61 1019.3
20260830181653 93 39 0.9 2.6 0.00 0.00 0.00 60 1019.3
20260830181552 93 39 1.7 2.6 0.00 0.00 0.00 59 1019.4
20260830181449 93 39 1.7 2.6 0.00 0.00 0.00 60 1019.4
20260830181348 93 39 1.7 2.6 0.00 0.00 0.00 61 1019.4
20260830181248 93 39 0.9 2.6 0.00 0.00 0.00 60 1019.4
20260830181146 93 39 0.9 2.6 0.00 0.00 0.00 60 1019.5
20260830181044 93 39 0.9 3.5 0.00 0.00 0.00 59 1019.5
20260830180942 93 39 1.7 3.5 0.00 0.00 0.00 60 1019.5
20260830180841 93 39 1.7 3.5 0.00 0.00 0.00 60 1019.5
20260830180741 93 39 0.9 4.3 0.00 0.00 0.00 61 1019.5
20260830180639 93 39 0.9 4.3 0.00 0.00 0.00 59 1019.6
20260830180537 93 39 0.9 4.3 0.00 0.00 0.00 59 1019.5
20260830180436 93 39 0.9 4.3 0.00 0.00 0.00 61 1019.5
20260830180335 93 39 0.9 4.3 0.00 0.00 0.00 61 1019.5
20260830180231 93 39 1.7 4.3 0.00 0.00 0.00 62 1019.5
20260830180132 93 39 1.7 4.3 0.00 0.00 0.00 62 1019.6
20260830180031 92 39 1.7 4.3 0.00 0.00 0.00 61 1019.6
20260830175933 92 39 3.5 4.3 0.00 0.00 0.00 61 1019.6
20260830175834 92 39 3.5 4.3 0.00 0.00 0.00 59 1019.6
20260830175715 92 75 3.5 4.3 0.00 0.00 0.00 59 1019.6
20260830175604 93 89 3.5 4.3 0.00 0.00 0.00 59 1019.7
20260830175505 93 90 3.5 4.3 0.00 0.00 0.00 59 1019.7
20260830175406 93 114 1.7 3.5 0.00 0.00 0.00 59 1019.7
20260830175306 93 137 0.9 3.5 0.00 0.00 0.00 61 1019.7
20260830175204 93 137 0.9 4.3 0.00 0.00 0.00 61 1019.7
20260830175106 93 137 0.9 4.3 0.00 0.00 0.00 62 1019.8
20260830175004 93 140 0.9 4.3 0.00 0.00 0.00 60 1019.8
20260830174905 93 140 1.7 4.3 0.00 0.00 0.00 60 1019.8
20260830174804 93 140 1.7 4.3 0.00 0.00 0.00 62 1019.8
20260830174704 93 137 1.7 4.3 0.00 0.00 0.00 63 1019.8
20260830174605 93 123 0.9 4.3 0.00 0.00 0.00 64 1019.7
20260830174504 93 123 0.9 4.3 0.00 0.00 0.00 63 1019.8
20260830174405 93 123 1.7 4.3 0.00 0.00 0.00 63 1019.8
20260830174305 93 124 1.7 4.3 0.00 0.00 0.00 64 1019.8
20260830174204 92 303 1.7 2.6 0.00 0.00 0.00 62 1019.8
20260830174104 92 288 0.9 3.5 0.00 0.00 0.00 64 1019.8
20260830174004 92 286 0.9 3.5 0.00 0.00 0.00 63 1019.8
20260830173904 92 286 1.7 3.5 0.00 0.00 0.00 63 1019.9
20260830173805 92 286 0.9 3.5 0.00 0.00 0.00 62 1020.0
20260830173705 92 286 0.0 3.5 0.00 0.00 0.00 63 1020.0
20260830173604 91 286 0.0 3.5 0.00 0.00 0.00 64 1020.0
20260830173504 91 286 0.0 4.3 0.00 0.00 0.00 62 1020.0
20260830173405 92 286 0.9 4.3 0.00 0.00 0.00 61 1020.0
20260830173305 92 286 1.7 4.3 0.00 0.00 0.00 62 1020.0
20260830173204 92 286 1.7 4.3 0.00 0.00 0.00 61 1020.0
20260830173104 92 286 1.7 4.3 0.00 0.00 0.00 63 1020.1
20260830173005 92 286 0.9 4.3 0.00 0.00 0.00 63 1020.2
20260830172904 92 286 0.9 4.3 0.00 0.00 0.00 63 1020.1
20260830172804 92 286 1.7 4.3 0.00 0.00 0.00 62 1020.1
20260830172705 92 288 2.6 4.3 0.00 0.00 0.00 62 1020.1
20260830172605 92 286 2.6 4.3 0.00 0.00 0.00 63 1020.1
20260830172505 92 288 3.5 4.3 0.00 0.00 0.00 62 1020.1
20260830172404 92 290 2.6 4.3 0.00 0.00 0.00 65 1020.1
20260830172306 92 228 0.9 4.3 0.00 0.00 0.00 63 1020.2
20260830172204 92 228 0.9 4.3 0.00 0.00 0.00 63 1020.2
20260830172104 92 250 0.9 4.3 0.00 0.00 0.00 65 1020.2
20260830172006 92 250 1.7 4.3 0.00 0.00 0.00 63 1020.2
20260830171904 92 250 1.7 4.3 0.00 0.00 0.00 65 1020.3
20260830171804 92 250 1.7 4.3 0.00 0.00 0.00 63 1020.3
20260830171704 92 250 3.5 4.3 0.00 0.00 0.00 63 1020.3
20260830171606 92 255 2.6 4.3 0.00 0.00 0.00 63 1020.3
20260830171504 92 247 1.7 2.6 0.00 0.00 0.00 64 1020.4
20260830171402 92 245 0.9 2.6 0.00 0.00 0.00 65 1020.3
20260830171304 92 245 0.9 1.7 0.00 0.00 0.00 65 1020.3
20260830171204 92 245 0.9 1.7 0.00 0.00 0.00 64 1020.3
20260830171104 92 245 0.9 2.6 0.00 0.00 0.00 65 1020.3
20260830171003 91 245 0.0 2.6 0.00 0.00 0.00 63 1020.2
20260830170905 91 245 0.9 2.6 0.00 0.00 0.00 63 1020.2
20260830170803 91 245 0.9 2.6 0.00 0.00 0.00 64 1020.2
20260830170703 91 245 0.9 2.6 0.00 0.00 0.00 64 1020.2
20260830170605 91 245 0.9 2.6 0.00 0.00 0.00 62 1020.3
20260830170504 91 245 1.7 3.5 0.00 0.00 0.00 63 1020.2
20260830170403 92 257 1.7 4.3 0.00 0.00 0.00 68 1020.2
20260830170303 91 258 1.7 4.3 0.00 0.00 0.00 67 1020.2
20260830170205 91 258 1.7 4.3 0.00 0.00 0.00 67 1020.1
20260830170104 91 258 0.9 4.3 0.00 0.00 0.00 66 1020.2
20260830170004 90 258 0.9 4.3 0.00 0.00 0.00 67 1020.3
20260830165904 91 258 0.9 4.3 0.00 0.00 0.00 67 1020.2
20260830165804 91 258 0.9 4.3 0.00 0.00 0.00 67 1020.2
20260830165704 91 258 1.7 4.3 0.00 0.00 0.00 67 1020.2
20260830165603 91 258 2.6 4.3 0.00 0.00 0.00 66 1020.2
20260830165505 91 258 2.6 4.3 0.00 0.00 0.00 67 1020.2
20260830165403 91 257 1.7 4.3 0.00 0.00 0.00 67 1020.3
20260830165305 91 258 0.9 4.3 0.00 0.00 0.00 68 1020.3
20260830165204 91 257 0.9 4.3 0.00 0.00 0.00 68 1020.3
20260830165105 90 258 1.7 4.3 0.00 0.00 0.00 68 1020.3
20260830165003 90 257 1.7 4.3 0.00 0.00 0.00 68 1020.4
20260830164904 91 257 3.5 4.3 0.00 0.00 0.00 68 1020.4
20260830164803 91 257 3.5 4.3 0.00 0.00 0.00 68 1020.3
20260830164703 91 257 3.5 4.3 0.00 0.00 0.00 68 1020.4
20260830164603 91 233 2.6 3.5 0.00 0.00 0.00 68 1020.4
20260830164504 91 233 3.5 3.5 0.00 0.00 0.00 68 1020.3
20260830164403 91 227 2.6 3.5 0.00 0.00 0.00 68 1020.4
20260830164302 91 204 1.7 3.5 0.00 0.00 0.00 67 1020.4
20260830164202 91 193 1.7 2.6 0.00 0.00 0.00 66 1020.3
20260830164104 91 193 1.7 2.6 0.00 0.00 0.00 67 1020.3
20260830164003 91 193 0.9 2.6 0.00 0.00 0.00 68 1020.3
20260830163900 91 193 0.0 2.6 0.00 0.00 0.00 68 1020.2
20260830163758 91 193 0.0 2.6 0.00 0.00 0.00 67 1020.2
20260830163658 91 193 0.9 2.6 0.00 0.00 0.00 67 1020.2
20260830163555 91 193 0.0 2.6 0.00 0.00 0.00 68 1020.2
20260830163455 91 193 0.0 2.6 0.00 0.00 0.00 69 1020.2
20260830163356 90 193 0.9 2.6 0.00 0.00 0.00 69 1020.2
20260830163251 90 193 1.7 2.6 0.00 0.00 0.00 68 1020.4
20260830163149 90 195 1.7 3.5 0.00 0.00 0.00 67 1020.3
20260830163048 90 278 0.9 3.5 0.00 0.00 0.00 67 1020.3
20260830162946 90 281 0.9 3.5 0.00 0.00 0.00 69 1020.4
20260830162846 90 281 0.0 3.5 0.00 0.00 0.00 68 1020.3
20260830162745 90 281 0.0 3.5 0.00 0.00 0.00 67 1020.4
20260830162642 90 281 0.0 3.5 0.00 0.00 0.00 67 1020.4
20260830162537 90 281 0.9 3.5 0.00 0.00 0.00 67 1020.4
20260830162435 90 281 0.9 3.5 0.00 0.00 0.00 69 1020.3
20260830162334 90 278 1.7 3.5 0.00 0.00 0.00 68 1020.4
20260830162232 90 279 1.7 3.5 0.00 0.00 0.00 68 1020.4
20260830162130 90 279 1.7 3.5 0.00 0.00 0.00 68 1020.3
20260830162032 90 279 1.7 3.5 0.00 0.00 0.00 68 1020.3
20260830161932 90 288 0.9 3.5 0.00 0.00 0.00 69 1020.3
20260830161830 89 288 0.0 3.5 0.00 0.00 0.00 69 1020.4
20260830161731 89 285 0.9 3.5 0.00 0.00 0.00 69 1020.3
20260830161628 89 285 1.7 3.5 0.00 0.00 0.00 69 1020.4
20260830161527 89 285 2.6 3.5 0.00 0.00 0.00 70 1020.4
20260830161427 89 286 1.7 2.6 0.00 0.00 0.00 71 1020.4
20260830161324 89 286 0.9 2.6 0.00 0.00 0.00 73 1020.4
20260830161223 89 286 0.9 3.5 0.00 0.00 0.00 73 1020.4
20260830161121 89 286 0.9 3.5 0.00 0.00 0.00 73 1020.4
20260830161020 89 286 0.9 3.5 0.00 0.00 0.00 71 1020.4
20260830160918 89 286 0.9 3.5 0.00 0.00 0.00 72 1020.4
20260830160817 89 286 0.9 3.5 0.00 0.00 0.00 72 1020.4
20260830160716 89 286 1.7 4.3 0.00 0.00 0.00 71 1020.4
20260830160614 89 285 1.7 4.3 0.00 0.00 0.00 72 1020.4
20260830160514 88 285 0.9 4.3 0.00 0.00 0.00 71 1020.4
20260830160412 88 285 1.7 4.3 0.00 0.00 0.00 71 1020.4
20260830160310 88 285 2.6 4.3 0.00 0.00 0.00 70 1020.5
20260830160208 89 285 1.7 4.3 0.00 0.00 0.00 71 1020.4
20260830160107 88 285 0.9 4.3 0.00 0.00 0.00 72 1020.5
20260830160004 88 285 1.7 4.3 0.00 0.00 0.00 71 1020.5
20260830155904 88 285 2.6 4.3 0.00 0.00 0.00 71 1020.4
20260830155803 88 285 2.6 4.3 0.00 0.00 0.00 72 1020.4
20260830155703 88 281 1.7 3.5 0.00 0.00 0.00 72 1020.5
20260830155603 88 282 0.9 3.5 0.00 0.00 0.00 72 1020.4
20260830155502 88 281 0.9 2.6 0.00 0.00 0.00 72 1020.5
20260830155403 88 281 0.9 2.6 0.00 0.00 0.00 72 1020.5
20260830155306 88 281 1.7 2.6 0.00 0.00 0.00 72 1020.4
20260830155202 88 281 1.7 2.6 0.00 0.00 0.00 72 1020.5
20260830155103 88 282 0.9 2.6 0.00 0.00 0.00 72 1020.4
20260830155003 88 282 0.0 2.6 0.00 0.00 0.00 72 1020.3
20260830154903 88 282 0.9 2.6 0.00 0.00 0.00 73 1020.4
20260830154802 88 282 1.7 2.6 0.00 0.00 0.00 73 1020.4
20260830154703 88 283 1.7 3.5 0.00 0.00 0.00 73 1020.4
20260830154604 88 283 0.9 3.5 0.00 0.00 0.00 75 1020.4
20260830154502 88 288 0.9 3.5 0.00 0.00 0.00 74 1020.5
20260830154402 88 288 0.0 3.5 0.00 0.00 0.00 73 1020.3
20260830154302 88 288 0.0 3.5 0.00 0.00 0.00 73 1020.4
20260830154203 88 288 0.9 3.5 0.00 0.00 0.00 73 1020.4
20260830154102 88 288 0.9 3.5 0.00 0.00 0.00 72 1020.5
20260830154004 88 288 1.7 3.5 0.00 0.00 0.00 71 1020.4
20260830153903 88 288 1.7 3.5 0.00 0.00 0.00 72 1020.5
20260830153803 88 288 2.6 3.5 0.00 0.00 0.00 73 1020.5
20260830153703 88 288 2.6 3.5 0.00 0.00 0.00 72 1020.5
20260830153604 88 285 1.7 2.6 0.00 0.00 0.00 74 1020.5
20260830153504 88 285 0.9 2.6 0.00 0.00 0.00 75 1020.5
20260830153403 88 285 0.9 2.6 0.00 0.00 0.00 73 1020.5
20260830153303 88 286 0.9 2.6 0.00 0.00 0.00 74 1020.6
20260830153203 88 286 0.9 2.6 0.00 0.00 0.00 75 1020.5
20260830153102 88 288 0.9 2.6 0.00 0.00 0.00 75 1020.6
20260830153003 87 288 0.9 2.6 0.00 0.00 0.00 74 1020.5
20260830152903 87 283 0.0 1.7 0.00 0.00 0.00 74 1020.5
20260830152802 87 283 0.9 1.7 0.00 0.00 0.00 74 1020.5
20260830152702 87 283 0.9 2.6 0.00 0.00 0.00 75 1020.6
20260830152603 87 282 0.0 3.5 0.00 0.00 0.00 75 1020.6
20260830152503 87 282 0.0 3.5 0.00 0.00 0.00 75 1020.5
20260830152403 87 282 0.9 3.5 0.00 0.00 0.00 75 1020.6
20260830152305 87 282 0.9 3.5 0.00 0.00 0.00 76 1020.6
20260830152202 87 282 0.9 5.2 0.00 0.00 0.00 76 1020.6
20260830152102 87 282 0.9 5.2 0.00 0.00 0.00 77 1020.6
20260830152002 87 282 0.9 5.2 0.00 0.00 0.00 75 1020.6
20260830151903 87 282 1.7 5.2 0.00 0.00 0.00 76 1020.6
20260830151804 87 282 1.7 5.2 0.00 0.00 0.00 76 1020.5
20260830151702 87 283 0.9 5.2 0.00 0.00 0.00 76 1020.5
20260830151603 87 286 0.9 5.2 0.00 0.00 0.00 76 1020.5
20260830151503 87 286 1.7 5.2 0.00 0.00 0.00 78 1020.5
20260830151402 87 286 3.5 5.2 0.00 0.00 0.00 76 1020.5
20260830151301 87 282 2.6 5.2 0.00 0.00 0.00 77 1020.5
20260830151202 87 265 1.7 3.5 0.00 0.00 0.00 78 1020.5
20260830151102 87 173 0.9 3.5 0.00 0.00 0.00 77 1020.5
20260830151002 87 172 1.7 3.5 0.00 0.00 0.00 77 1020.5
20260830150903 87 173 1.7 3.5 0.00 0.00 0.00 78 1020.4
20260830150802 87 265 0.9 2.6 0.00 0.00 0.00 78 1020.4
20260830150703 87 255 0.9 2.6 0.00 0.00 0.00 78 1020.4
20260830150603 87 255 0.9 2.6 0.00 0.00 0.00 79 1020.4
20260830150505 87 255 0.0 2.6 0.00 0.00 0.00 80 1020.4
20260830150403 86 255 0.0 2.6 0.00 0.00 0.00 78 1020.4
20260830150302 86 255 0.0 2.6 0.00 0.00 0.00 78 1020.3
20260830150203 86 255 0.9 2.6 0.00 0.00 0.00 78 1020.4
20260830150104 86 255 0.9 2.6 0.00 0.00 0.00 79 1020.4
20260830150001 86 255 1.7 2.6 0.00 0.00 0.00 79 1020.3
20260830145901 86 255 0.9 2.6 0.00 0.00 0.00 79 1020.4
20260830145801 86 224 0.0 3.5 0.00 0.00 0.00 79 1020.4
20260830145701 86 224 0.9 3.5 0.00 0.00 0.00 79 1020.4
20260830145600 86 224 1.7 3.5 0.00 0.00 0.00 79 1020.4
20260830145500 86 224 1.7 3.5 0.00 0.00 0.00 81 1020.4
20260830145403 86 224 0.9 3.5 0.00 0.00 0.00 81 1020.4
20260830145300 85 224 0.9 3.5 0.00 0.00 0.00 81 1020.3
20260830145201 85 224 1.7 3.5 0.00 0.00 0.00 80 1020.5
20260830145101 85 224 1.7 3.5 0.00 0.00 0.00 80 1020.4
20260830145002 85 224 2.6 3.5 0.00 0.00 0.00 80 1020.4
20260830144901 85 224 2.6 3.5 0.00 0.00 0.00 82 1020.4
20260830144800 85 220 1.7 3.5 0.00 0.00 0.00 82 1020.4
20260830144702 85 216 0.9 2.6 0.00 0.00 0.00 82 1020.4
20260830144601 85 216 0.9 2.6 0.00 0.00 0.00 83 1020.5
20260830144500 85 216 0.9 2.6 0.00 0.00 0.00 83 1020.5
20260830144401 85 216 0.9 2.6 0.00 0.00 0.00 83 1020.4
20260830144300 85 216 0.9 2.6 0.00 0.00 0.00 83 1020.4
20260830144201 85 216 0.9 2.6 0.00 0.00 0.00 83 1020.4
20260830144100 85 216 0.0 2.6 0.00 0.00 0.00 83 1020.5
20260830144003 85 216 0.9 2.6 0.00 0.00 0.00 83 1020.4
20260830143901 85 216 1.7 2.6 0.00 0.00 0.00 83 1020.5
20260830143801 85 216 1.7 2.6 0.00 0.00 0.00 83 1020.5
20260830143701 85 216 1.7 2.6 0.00 0.00 0.00 83 1020.5
20260830143601 85 216 0.9 2.6 0.00 0.00 0.00 83 1020.5
20260830143500 85 216 0.0 2.6 0.00 0.00 0.00 84 1020.5
20260830143400 85 216 0.0 2.6 0.00 0.00 0.00 83 1020.5
20260830143300 85 216 0.9 2.6 0.00 0.00 0.00 83 1020.5
20260830143200 85 216 1.7 2.6 0.00 0.00 0.00 83 1020.5
20260830143101 85 216 0.9 2.6 0.00 0.00 0.00 83 1020.5
20260830143001 85 216 0.0 2.6 0.00 0.00 0.00 83 1020.6
20260830142902 85 216 0.9 2.6 0.00 0.00 0.00 83 1020.6
20260830142800 85 216 1.7 2.6 0.00 0.00 0.00 83 1020.6
20260830142700 85 216 1.7 2.6 0.00 0.00 0.00 83 1020.5
20260830142603 85 216 0.9 2.6 0.00 0.00 0.00 84 1020.6
20260830142501 85 216 0.9 2.6 0.00 0.00 0.00 84 1020.5
20260830142400 85 216 1.7 2.6 0.00 0.00 0.00 84 1020.5
20260830142301 85 216 0.9 2.6 0.00 0.00 0.00 84 1020.5
20260830142201 84 216 0.0 2.6 0.00 0.00 0.00 84 1020.5
20260830142100 84 216 0.0 2.6 0.00 0.00 0.00 85 1020.5
20260830142000 84 216 0.0 2.6 0.00 0.00 0.00 85 1020.5
20260830141900 84 216 0.9 2.6 0.00 0.00 0.00 85 1020.5
20260830141800 84 216 1.7 2.6 0.00 0.00 0.00 85 1020.5
20260830141700 84 216 1.7 2.6 0.00 0.00 0.00 85 1020.6
20260830141600 84 216 1.7 2.6 0.00 0.00 0.00 85 1020.6
20260830141501 84 216 0.9 2.6 0.00 0.00 0.00 86 1020.6
20260830141359 84 216 0.9 2.6 0.00 0.00 0.00 86 1020.6
20260830141300 84 216 0.0 2.6 0.00 0.00 0.00 86 1020.6
20260830141200 84 216 0.0 2.6 0.00 0.00 0.00 87 1020.6
20260830141100 84 216 0.0 2.6 0.00 0.00 0.00 86 1020.7
20260830141000 84 216 0.9 2.6 0.00 0.00 0.00 86 1020.6
20260830140902 84 216 0.9 2.6 0.00 0.00 0.00 87 1020.6
20260830140800 83 216 0.9 1.7 0.00 0.00 0.00 87 1020.6
20260830140700 83 216 0.0 1.7 0.00 0.00 0.00 88 1020.6
20260830140559 83 216 0.9 1.7 0.00 0.00 0.00 87 1020.6
20260830140502 83 216 0.9 1.7 0.00 0.00 0.00 88 1020.6
20260830140400 83 216 0.9 1.7 0.00 0.00 0.00 88 1020.5
20260830140259 83 216 0.9 2.6 0.00 0.00 0.00 88 1020.5
20260830140200 83 216 0.9 2.6 0.00 0.00 0.00 88 1020.4
20260830140059 83 216 0.0 2.6 0.00 0.00 0.00 88 1020.5
20260830140002 83 216 0.0 2.6 0.00 0.00 0.00 88 1020.5
20260830135900 83 216 0.0 2.6 0.00 0.00 0.00 89 1020.4
20260830135802 83 216 0.0 2.6 0.00 0.00 0.00 88 1020.5
20260830135659 83 216 0.0 2.6 0.00 0.00 0.00 89 1020.4
20260830135559 83 216 0.9 2.6 0.00 0.00 0.00 89 1020.4
20260830135501 83 216 0.9 2.6 0.00 0.00 0.00 88 1020.4
20260830135359 83 216 1.7 2.6 0.00 0.00 0.00 88 1020.3
20260830135259 83 216 1.7 1.7 0.00 0.00 0.00 88 1020.3
20260830135201 83 216 0.9 1.7 0.00 0.00 0.00 89 1020.3
20260830135059 83 216 0.9 1.7 0.00 0.00 0.00 88 1020.3
20260830134959 83 216 0.9 1.7 0.00 0.00 0.00 89 1020.2
20260830134900 82 216 0.0 0.9 0.00 0.00 0.00 89 1020.2
20260830134801 82 216 0.0 0.9 0.00 0.00 0.00 89 1020.1
20260830134659 82 216 0.0 0.9 0.00 0.00 0.00 89 1020.1
20260830134559 82 216 0.0 1.7 0.00 0.00 0.00 89 1020.2
20260830134501 82 216 0.0 1.7 0.00 0.00 0.00 89 1020.1
20260830134400 82 216 0.0 1.7 0.00 0.00 0.00 89 1020.1
20260830134259 82 216 0.0 2.6 0.00 0.00 0.00 89 1020.1
20260830134159 82 216 0.0 2.6 0.00 0.00 0.00 89 1020.1
20260830134100 82 216 0.0 2.6 0.00 0.00 0.00 89 1020.0
20260830133959 82 216 0.0 2.6 0.00 0.00 0.00 89 1020.0
20260830133859 82 216 0.0 2.6 0.00 0.00 0.00 89 1020.1
20260830133801 82 216 0.9 2.6 0.00 0.00 0.00 89 1020.1
20260830133700 82 216 0.9 2.6 0.00 0.00 0.00 89 1020.0
20260830133559 82 216 1.7 2.6 0.00 0.00 0.00 89 1020.1
20260830133459 82 216 1.7 2.6 0.00 0.00 0.00 90 1020.1
20260830133401 82 216 1.7 2.6 0.00 0.00 0.00 90 1020.1
20260830133259 82 216 0.9 1.7 0.00 0.00 0.00 90 1020.1
20260830133159 82 216 0.9 1.7 0.00 0.00 0.00 90 1020.1
20260830133059 82 216 0.9 0.9 0.00 0.00 0.00 90 1020.1
20260830132959 81 216 0.0 0.9 0.00 0.00 0.00 90 1020.1
20260830132900 81 216 0.0 0.0 0.00 0.00 0.00 90 1020.0
20260830132759 81 216 0.0 0.0 0.00 0.00 0.00 91 1020.0
20260830132700 81 216 0.0 0.0 0.00 0.00 0.00 91 1020.1
20260830132559 81 216 0.0 0.0 0.00 0.00 0.00 91 1020.1
20260830132458 81 216 0.0 0.0 0.00 0.00 0.00 91 1020.0
20260830132400 81 216 0.0 0.0 0.00 0.00 0.00 92 1020.0
20260830132258 81 216 0.0 0.0 0.00 0.00 0.00 92 1020.0
20260830132159 81 216 0.0 0.0 0.00 0.00 0.00 92 1020.0
20260830132058 81 216 0.0 0.0 0.00 0.00 0.00 92 1020.0
20260830132001 81 216 0.0 0.0 0.00 0.00 0.00 92 1020.0
20260830131859 80 216 0.0 0.0 0.00 0.00 0.00 92 1020.0
20260830131759 80 216 0.0 0.0 0.00 0.00 0.00 93 1019.9
20260830131700 80 216 0.0 0.0 0.00 0.00 0.00 93 1019.9
20260830131558 80 216 0.0 0.0 0.00 0.00 0.00 93 1020.0
20260830131459 80 216 0.0 0.0 0.00 0.00 0.00 93 1019.9
20260830131359 80 216 0.0 0.0 0.00 0.00 0.00 94 1020.0
20260830131301 80 216 0.0 0.0 0.00 0.00 0.00 94 1019.9
20260830131158 80 216 0.0 0.0 0.00 0.00 0.00 94 1019.9
20260830131059 80 216 0.0 0.0 0.00 0.00 0.00 94 1019.9
20260830130959 80 216 0.0 0.0 0.00 0.00 0.00 95 1019.9
20260830130859 80 216 0.0 0.0 0.00 0.00 0.00 95 1019.9
20260830130758 80 216 0.0 0.0 0.00 0.00 0.00 95 1020.0
20260830130658 80 216 0.0 0.0 0.00 0.00 0.00 95 1019.9
20260830130559 79 216 0.0 0.0 0.00 0.00 0.00 95 1019.9
20260830130459 79 216 0.0 0.0 0.00 0.00 0.00 95 1019.9
20260830130359 79 216 0.0 0.0 0.00 0.00 0.00 95 1019.9
20260830130259 79 216 0.0 0.0 0.00 0.00 0.00 95 1019.8
20260830130158 79 216 0.0 0.0 0.00 0.00 0.00 96 1019.8
20260830130059 79 216 0.0 0.0 0.00 0.00 0.00 96 1019.9
20260830125959 79 216 0.0 0.0 0.00 0.00 0.00 96 1019.8
20260830125858 78 216 0.0 0.0 0.00 0.00 0.00 96 1019.9
20260830125758 78 216 0.0 0.0 0.00 0.00 0.00 96 1019.8
20260830125658 78 216 0.0 0.0 0.00 0.00 0.00 96 1019.8
20260830125601 78 216 0.0 0.0 0.00 0.00 0.00 96 1019.7
20260830125458 78 216 0.0 0.0 0.00 0.00 0.00 96 1019.7
20260830125359 78 216 0.0 0.0 0.00 0.00 0.00 96 1019.7
20260830125258 78 216 0.0 0.0 0.00 0.00 0.00 96 1019.7
20260830125159 78 216 0.0 0.0 0.00 0.00 0.00 96 1019.7
20260830125057 78 216 0.0 0.0 0.00 0.00 0.00 96 1019.7
20260830124958 78 216 0.0 0.0 0.00 0.00 0.00 96 1019.7
20260830124856 78 216 0.0 0.0 0.00 0.00 0.00 96 1019.7
20260830124755 78 216 0.0 0.0 0.00 0.00 0.00 96 1019.8
20260830124652 78 216 0.0 0.0 0.00 0.00 0.00 96 1019.8
20260830124549 78 216 0.0 0.0 0.00 0.00 0.00 96 1019.7
20260830124448 78 216 0.0 0.0 0.00 0.00 0.00 96 1019.8
20260830124346 78 216 0.0 0.0 0.00 0.00 0.00 96 1019.8
20260830124246 78 216 0.0 0.0 0.00 0.00 0.00 96 1019.8
20260830124143 77 216 0.0 0.0 0.00 0.00 0.00 96 1019.8
20260830124041 77 216 0.0 0.0 0.00 0.00 0.00 96 1019.7
20260830123940 77 216 0.0 0.0 0.00 0.00 0.00 96 1019.8
20260830123838 77 216 0.0 0.0 0.00 0.00 0.00 96 1019.8
20260830123734 77 216 0.0 0.0 0.00 0.00 0.00 96 1019.7
20260830123632 77 216 0.0 0.0 0.00 0.00 0.00 96 1019.7
20260830123531 77 216 0.0 0.0 0.00 0.00 0.00 96 1019.8
20260830123433 77 216 0.0 0.0 0.00 0.00 0.00 96 1019.8
20260830123331 77 216 0.0 0.0 0.00 0.00 0.00 96 1019.8
20260830123231 77 216 0.0 0.0 0.00 0.00 0.00 96 1019.8
20260830123132 77 216 0.0 0.0 0.00 0.00 0.00 96 1019.8
20260830123033 77 216 0.0 0.0 0.00 0.00 0.00 96 1019.7
20260830122931 77 216 0.0 0.0 0.00 0.00 0.00 96 1019.5
20260830122831 77 216 0.0 0.0 0.00 0.00 0.00 96 1019.6
20260830122732 77 216 0.0 0.0 0.00 0.00 0.00 96 1019.6
20260830122632 77 216 0.0 0.0 0.00 0.00 0.00 96 1019.6
20260830122532 77 216 0.0 0.0 0.00 0.00 0.00 96 1019.5
20260830122432 77 216 0.0 0.0 0.00 0.00 0.00 96 1019.5
20260830122331 77 216 0.0 0.0 0.00 0.00 0.00 96 1019.5
20260830122233 77 216 0.0 0.0 0.00 0.00 0.00 96 1019.5
20260830122131 77 216 0.0 0.0 0.00 0.00 0.00 96 1019.6
20260830122032 77 216 0.0 0.0 0.00 0.00 0.00 96 1019.6
20260830121931 77 216 0.0 0.0 0.00 0.00 0.00 96 1019.5
20260830121831 77 216 0.0 0.0 0.00 0.00 0.00 96 1019.5
20260830121732 77 216 0.0 0.0 0.00 0.00 0.00 96 1019.6
20260830121632 77 216 0.0 0.0 0.00 0.00 0.00 96 1019.6
20260830121532 77 216 0.0 0.0 0.00 0.00 0.00 96 1019.5
20260830121432 77 216 0.0 0.0 0.00 0.00 0.00 96 1019.5
20260830121334 77 216 0.0 0.0 0.00 0.00 0.00 96 1019.5
20260830121230 77 216 0.0 0.0 0.00 0.00 0.00 96 1019.6
20260830121131 77 216 0.0 0.0 0.00 0.00 0.00 96 1019.6
20260830121032 77 216 0.0 0.0 0.00 0.00 0.00 96 1019.6
20260830120934 77 216 0.0 0.0 0.00 0.00 0.00 96 1019.6
20260830120832 77 216 0.0 0.0 0.00 0.00 0.00 96 1019.5
20260830120731 77 216 0.0 0.0 0.00 0.00 0.00 96 1019.6
20260830120633 77 216 0.0 0.0 0.00 0.00 0.00 96 1019.5
20260830120533 77 216 0.0 0.0 0.00 0.00 0.00 96 1019.5
20260830120432 77 216 0.0 0.0 0.00 0.00 0.00 96 1019.5
20260830120333 77 216 0.0 0.0 0.00 0.00 0.00 96 1019.5
20260830120231 77 216 0.0 0.0 0.00 0.00 0.00 96 1019.5
20260830120132 77 216 0.0 0.0 0.00 0.00 0.00 96 1019.4
20260830120032 77 216 0.0 0.0 0.00 0.00 0.00 96 1019.4
20260830115932 77 216 0.0 0.0 0.00 0.00 0.00 96 1019.4
20260830115831 77 216 0.0 0.0 0.00 0.00 0.00 96 1019.4
20260830115731 77 216 0.0 0.0 0.00 0.00 0.00 96 1019.4
20260830115632 77 216 0.0 0.0 0.00 0.00 0.00 96 1019.5
20260830115526 77 216 0.0 0.0 0.00 0.00 0.00 96 1019.5
20260830115425 77 216 0.0 0.0 0.00 0.00 0.00 96 1019.5
20260830115324 77 216 0.0 0.0 0.00 0.00 0.00 96 1019.5
20260830115222 77 216 0.0 0.0 0.00 0.00 0.00 96 1019.5
20260830115122 77 216 0.0 0.0 0.00 0.00 0.00 96 1019.5
20260830115019 77 216 0.0 0.0 0.00 0.00 0.00 96 1019.5
20260830114917 77 216 0.0 0.0 0.00 0.00 0.00 96 1019.6
20260830114817 77 216 0.0 0.0 0.00 0.00 0.00 96 1019.5
20260830114716 77 216 0.0 0.0 0.00 0.00 0.00 96 1019.4
20260830114613 77 216 0.0 0.0 0.00 0.00 0.00 96 1019.5
20260830114512 77 216 0.0 0.0 0.00 0.00 0.00 96 1019.4
20260830114412 77 216 0.0 0.0 0.00 0.00 0.00 96 1019.5
20260830114310 77 216 0.0 0.0 0.00 0.00 0.00 96 1019.5
20260830114208 77 216 0.0 0.0 0.00 0.00 0.00 96 1019.5
20260830114106 77 216 0.0 0.0 0.00 0.00 0.00 96 1019.6
20260830114004 77 216 0.0 0.0 0.00 0.00 0.00 96 1019.4
20260830113904 77 216 0.0 0.0 0.00 0.00 0.00 96 1019.4
20260830113803 77 216 0.0 0.0 0.00 0.00 0.00 96 1019.4
20260830113705 77 216 0.0 0.0 0.00 0.00 0.00 96 1019.4
20260830113603 77 216 0.0 0.0 0.00 0.00 0.00 96 1019.3
20260830113504 77 216 0.0 0.0 0.00 0.00 0.00 96 1019.4
20260830113402 77 216 0.0 0.0 0.00 0.00 0.00 96 1019.3
20260830113303 77 216 0.0 0.0 0.00 0.00 0.00 96 1019.4
20260830113203 77 216 0.0 0.0 0.00 0.00 0.00 96 1019.4
20260830113102 77 216 0.0 0.0 0.00 0.00 0.00 96 1019.3
20260830113004 77 216 0.0 0.0 0.00 0.00 0.00 96 1019.4
20260830112904 77 216 0.0 0.0 0.00 0.00 0.00 96 1019.4
20260830112801 77 216 0.0 0.0 0.00 0.00 0.00 96 1019.4
20260830112703 77 216 0.0 0.0 0.00 0.00 0.00 96 1019.5
20260830112602 77 216 0.0 0.0 0.00 0.00 0.00 96 1019.5
20260830112503 77 216 0.0 0.0 0.00 0.00 0.00 96 1019.5
20260830112403 77 216 0.0 0.0 0.00 0.00 0.00 96 1019.5
20260830112306 77 216 0.0 0.0 0.00 0.00 0.00 96 1019.5
20260830112202 77 216 0.0 0.0 0.00 0.00 0.00 96 1019.5
20260830112102 77 216 0.0 0.0 0.00 0.00 0.00 96 1019.4
20260830112003 77 216 0.0 0.0 0.00 0.00 0.00 96 1019.4
20260830111903 77 216 0.0 0.0 0.00 0.00 0.00 96 1019.4
20260830111802 77 216 0.0 0.0 0.00 0.00 0.00 96 1019.5
20260830111702 77 216 0.0 0.0 0.00 0.00 0.00 96 1019.5
20260830111602 77 216 0.0 0.0 0.00 0.00 0.00 95 1019.5
20260830111502 77 216 0.0 0.0 0.00 0.00 0.00 95 1019.5
20260830111402 77 216 0.0 0.0 0.00 0.00 0.00 95 1019.5
20260830111305 77 216 0.0 0.0 0.00 0.00 0.00 95 1019.3
20260830111202 77 216 0.0 0.0 0.00 0.00 0.00 95 1019.3
20260830111102 77 216 0.0 0.0 0.00 0.00 0.00 95 1019.3
20260830111002 77 216 0.0 0.0 0.00 0.00 0.00 95 1019.3
20260830110902 77 216 0.0 0.0 0.00 0.00 0.00 95 1019.3
20260830110803 77 216 0.0 0.0 0.00 0.00 0.00 95 1019.2
20260830110702 77 216 0.0 0.0 0.00 0.00 0.00 95 1019.2
20260830110604 77 216 0.0 0.0 0.00 0.00 0.00 95 1019.2
20260830110503 77 216 0.0 0.0 0.00 0.00 0.00 95 1019.2
20260830110403 77 216 0.0 0.0 0.00 0.00 0.00 95 1019.2
20260830110303 77 216 0.0 0.0 0.00 0.00 0.00 95 1019.2
20260830110202 77 216 0.0 0.0 0.00 0.00 0.00 95 1019.3
20260830110002 77 216 0.0 0.0 0.00 0.00 0.00 95 1019.2
20260830105903 77 216 0.0 0.0 0.00 0.00 0.00 95 1019.2
20260830105803 77 216 0.0 0.0 0.00 0.00 0.00 95 1019.2
20260830105702 77 216 0.0 0.0 0.00 0.00 0.00 95 1019.2
20260830105603 77 216 0.0 0.0 0.00 0.00 0.00 95 1019.2
20260830105504 77 216 0.0 0.0 0.00 0.00 0.00 95 1019.2
20260830105402 77 216 0.0 0.0 0.00 0.00 0.00 95 1019.2
20260830105305 77 216 0.0 0.0 0.00 0.00 0.00 95 1019.2
20260830105204 77 216 0.0 0.0 0.00 0.00 0.00 95 1019.2
20260830105102 77 216 0.0 0.0 0.00 0.00 0.00 95 1019.2
20260830105003 77 216 0.0 0.0 0.00 0.00 0.00 95 1019.3
20260830104904 77 216 0.0 0.0 0.00 0.00 0.00 95 1019.3
20260830104802 77 216 0.0 0.0 0.00 0.00 0.00 95 1019.3
20260830104701 77 216 0.0 0.0 0.00 0.00 0.00 95 1019.2
20260830104603 77 216 0.0 0.0 0.00 0.00 0.00 95 1019.1
20260830104503 77 216 0.0 0.0 0.00 0.00 0.00 95 1019.1
20260830104403 78 216 0.0 0.0 0.00 0.00 0.00 95 1019.1
20260830104303 77 216 0.0 0.0 0.00 0.00 0.00 95 1019.1
20260830104204 78 216 0.0 0.0 0.00 0.00 0.00 95 1019.0
20260830104102 78 216 0.0 0.0 0.00 0.00 0.00 95 1019.1
20260830104002 78 216 0.0 0.0 0.00 0.00 0.00 95 1019.0
20260830103903 78 216 0.0 0.0 0.00 0.00 0.00 95 1019.0
20260830103802 78 216 0.0 0.0 0.00 0.00 0.00 95 1019.0
20260830103702 78 216 0.0 0.0 0.00 0.00 0.00 95 1019.1
20260830103600 78 216 0.0 0.0 0.00 0.00 0.00 95 1019.1
20260830103501 78 216 0.0 0.0 0.00 0.00 0.00 95 1019.0
20260830103357 78 216 0.0 0.0 0.00 0.00 0.00 95 1019.1
20260830103256 78 216 0.0 0.0 0.00 0.00 0.00 95 1019.1
20260830103156 78 216 0.0 0.0 0.00 0.00 0.00 95 1019.0
20260830103056 78 216 0.0 0.0 0.00 0.00 0.00 95 1019.1
20260830102957 78 216 0.0 0.0 0.00 0.00 0.00 95 1019.0
20260830102855 78 216 0.0 0.0 0.00 0.00 0.00 95 1019.0
20260830102754 78 216 0.0 0.0 0.00 0.00 0.00 95 1019.0
20260830102656 78 216 0.0 0.0 0.00 0.00 0.00 95 1019.1
20260830102554 78 216 0.0 0.0 0.00 0.00 0.00 95 1019.1
20260830102454 78 216 0.0 0.0 0.00 0.00 0.00 95 1019.1
20260830102356 78 216 0.0 0.0 0.00 0.00 0.00 95 1019.0
20260830102255 78 216 0.0 0.0 0.00 0.00 0.00 95 1019.0
20260830102154 78 216 0.0 0.0 0.00 0.00 0.00 95 1019.0
20260830102055 78 216 0.0 0.0 0.00 0.00 0.00 95 1019.0
20260830101955 78 216 0.0 0.0 0.00 0.00 0.00 95 1019.0
20260830101855 78 216 0.0 0.0 0.00 0.00 0.00 95 1018.9
20260830101755 78 216 0.0 0.0 0.00 0.00 0.00 95 1018.9
20260830101655 78 216 0.0 0.0 0.00 0.00 0.00 95 1018.9
20260830101556 78 216 0.0 0.0 0.00 0.00 0.00 95 1018.9
20260830101454 78 216 0.0 0.0 0.00 0.00 0.00 95 1018.9
20260830101354 78 216 0.0 0.0 0.00 0.00 0.00 95 1018.9
20260830101256 78 216 0.0 0.0 0.00 0.00 0.00 95 1018.8
20260830101155 78 216 0.0 0.0 0.00 0.00 0.00 95 1018.9
20260830101055 78 216 0.0 0.0 0.00 0.00 0.00 95 1018.9
20260830100954 78 216 0.0 0.0 0.00 0.00 0.00 95 1018.9
20260830100855 78 216 0.0 0.0 0.00 0.00 0.00 95 1018.8
20260830100754 78 216 0.0 0.0 0.00 0.00 0.00 95 1018.9
20260830100654 78 216 0.0 0.0 0.00 0.00 0.00 95 1018.8
20260830100556 78 216 0.0 0.0 0.00 0.00 0.00 95 1018.9
20260830100455 78 216 0.0 0.0 0.00 0.00 0.00 95 1018.8
20260830100354 78 216 0.0 0.0 0.00 0.00 0.00 95 1018.8
20260830100256 78 216 0.0 0.0 0.00 0.00 0.00 95 1018.9
20260830100156 78 216 0.0 0.0 0.00 0.00 0.00 95 1018.8
20260830100054 78 216 0.0 0.0 0.00 0.00 0.00 95 1018.9
20260830095954 78 216 0.0 0.0 0.00 0.00 0.00 94 1018.8
20260830095856 78 216 0.0 0.0 0.00 0.00 0.00 94 1018.9
20260830095748 78 216 0.0 0.0 0.00 0.00 0.00 94 1018.9
20260830095649 78 216 0.0 0.0 0.00 0.00 0.00 94 1018.7
20260830095545 78 216 0.0 0.0 0.00 0.00 0.00 94 1018.7
20260830095444 78 216 0.0 0.0 0.00 0.00 0.00 94 1018.7
20260830095343 78 216 0.0 0.0 0.00 0.00 0.00 94 1018.7
20260830095241 78 216 0.0 0.0 0.00 0.00 0.00 94 1018.7
20260830095141 78 216 0.0 0.0 0.00 0.00 0.00 94 1018.7
20260830095039 78 216 0.0 0.0 0.00 0.00 0.00 94 1018.8
20260830094937 78 216 0.0 0.0 0.00 0.00 0.00 94 1018.7
20260830094834 78 216 0.0 0.0 0.00 0.00 0.00 94 1018.7
20260830094733 78 216 0.0 0.0 0.00 0.00 0.00 94 1018.8
20260830094632 78 216 0.0 0.0 0.00 0.00 0.00 94 1018.8
20260830094532 78 216 0.0 0.0 0.00 0.00 0.00 94 1018.8
20260830094433 78 216 0.0 0.0 0.00 0.00 0.00 94 1018.8
20260830094332 78 216 0.0 0.0 0.00 0.00 0.00 94 1018.9
20260830094232 78 216 0.0 0.0 0.00 0.00 0.00 94 1018.8
20260830094132 78 216 0.0 0.0 0.00 0.00 0.00 94 1018.8
20260830094031 78 216 0.0 0.0 0.00 0.00 0.00 94 1018.8
20260830093933 78 216 0.0 0.0 0.00 0.00 0.00 94 1018.8
20260830093830 78 216 0.0 0.0 0.00 0.00 0.00 94 1018.8
20260830093731 78 216 0.0 0.0 0.00 0.00 0.00 94 1018.8
20260830093634 78 216 0.0 0.0 0.00 0.00 0.00 94 1018.9
20260830093532 78 216 0.0 0.0 0.00 0.00 0.00 94 1018.8
20260830093432 78 216 0.0 0.0 0.00 0.00 0.00 94 1018.8
20260830093333 78 216 0.0 0.0 0.00 0.00 0.00 94 1018.8
20260830093232 78 216 0.0 0.0 0.00 0.00 0.00 94 1018.7
20260830093132 78 216 0.0 0.0 0.00 0.00 0.00 94 1018.8
20260830093032 78 216 0.0 0.0 0.00 0.00 0.00 94 1018.8
20260830092932 78 216 0.0 0.0 0.00 0.00 0.00 94 1018.8
20260830092831 78 216 0.0 0.0 0.00 0.00 0.00 94 1018.7
20260830092733 78 216 0.0 0.0 0.00 0.00 0.00 94 1018.8
20260830092632 78 216 0.0 0.0 0.00 0.00 0.00 94 1018.8
20260830092533 78 216 0.0 0.0 0.00 0.00 0.00 94 1018.7
20260830092431 78 216 0.0 0.0 0.00 0.00 0.00 94 1018.7
20260830092331 78 216 0.0 0.0 0.00 0.00 0.00 94 1018.8
20260830092233 78 216 0.0 0.0 0.00 0.00 0.00 94 1018.7
20260830092131 78 216 0.0 0.0 0.00 0.00 0.00 94 1018.7
20260830092031 78 216 0.0 0.0 0.00 0.00 0.00 94 1018.8
20260830091933 78 216 0.0 0.0 0.00 0.00 0.00 94 1018.8
20260830091832 78 216 0.0 0.0 0.00 0.00 0.00 94 1018.8
20260830091731 78 216 0.0 0.0 0.00 0.00 0.00 94 1018.8
20260830091632 78 216 0.0 0.0 0.00 0.00 0.00 94 1018.8
20260830091532 78 216 0.0 0.0 0.00 0.00 0.00 94 1018.8
20260830091431 78 216 0.0 0.0 0.00 0.00 0.00 94 1018.8
20260830091332 78 216 0.0 0.0 0.00 0.00 0.00 94 1018.8
20260830091232 78 216 0.0 0.0 0.00 0.00 0.00 94 1018.8
20260830091132 78 216 0.0 0.0 0.00 0.00 0.00 94 1018.8
20260830091032 78 216 0.0 0.0 0.00 0.00 0.00 94 1018.8
20260830090934 78 216 0.0 0.0 0.00 0.00 0.00 93 1018.8
20260830090832 78 216 0.0 0.0 0.00 0.00 0.00 93 1018.8
20260830090731 78 216 0.0 0.0 0.00 0.00 0.00 93 1018.8
20260830090631 78 216 0.0 0.0 0.00 0.00 0.00 93 1018.7
20260830090533 78 216 0.0 0.0 0.00 0.00 0.00 94 1018.7
20260830090431 78 216 0.0 0.0 0.00 0.00 0.00 94 1018.7
20260830090331 78 216 0.0 0.0 0.00 0.00 0.00 93 1018.7
20260830090232 78 216 0.0 0.0 0.00 0.00 0.00 93 1018.8
20260830090132 78 216 0.0 0.0 0.00 0.00 0.00 93 1018.7
20260830090032 78 216 0.0 0.0 0.00 0.00 0.00 93 1018.7
20260830085932 78 216 0.0 0.0 0.00 0.00 0.00 93 1018.8
20260830085832 78 216 0.0 0.0 0.00 0.00 0.00 93 1018.7
20260830085731 78 216 0.0 0.0 0.00 0.00 0.00 93 1018.9
20260830085631 78 216 0.0 0.0 0.00 0.00 0.00 93 1018.9
20260830085533 78 216 0.0 0.0 0.00 0.00 0.00 93 1018.8
20260830085431 78 216 0.0 0.0 0.00 0.00 0.00 93 1018.9
20260830085331 78 216 0.0 0.0 0.00 0.00 0.00 93 1018.9
20260830085232 78 216 0.0 0.0 0.00 0.00 0.00 93 1018.8
20260830085133 78 216 0.0 0.0 0.00 0.00 0.00 93 1018.9
20260830085033 78 216 0.0 0.0 0.00 0.00 0.00 93 1018.8
20260830084932 78 216 0.0 0.0 0.00 0.00 0.00 93 1018.9
20260830084832 78 216 0.0 0.0 0.00 0.00 0.00 93 1018.9
20260830084731 78 216 0.0 0.0 0.00 0.00 0.00 93 1018.9
20260830084630 78 216 0.0 0.0 0.00 0.00 0.00 93 1018.8
20260830084532 78 216 0.0 0.0 0.00 0.00 0.00 93 1018.9
20260830084431 78 216 0.0 0.0 0.00 0.00 0.00 93 1018.9
20260830084332 78 216 0.0 0.0 0.00 0.00 0.00 93 1018.9
20260830084231 79 216 0.0 0.0 0.00 0.00 0.00 93 1018.9
20260830084133 79 216 0.0 0.0 0.00 0.00 0.00 93 1018.9
20260830084031 79 216 0.0 0.0 0.00 0.00 0.00 93 1018.9
20260830083931 79 216 0.0 0.0 0.00 0.00 0.00 92 1018.9
20260830083832 79 216 0.0 0.0 0.00 0.00 0.00 92 1018.9
20260830083732 79 216 0.0 0.0 0.00 0.00 0.00 92 1018.8
20260830083631 79 216 0.0 0.0 0.00 0.00 0.00 92 1018.9
20260830083532 79 216 0.0 0.0 0.00 0.00 0.00 92 1018.8
20260830083432 79 216 0.0 0.0 0.00 0.00 0.00 92 1018.8
20260830083330 79 216 0.0 0.0 0.00 0.00 0.00 92 1018.8
20260830083231 79 216 0.0 0.0 0.00 0.00 0.00 92 1018.8
20260830083132 79 216 0.0 0.0 0.00 0.00 0.00 92 1018.8
20260830083032 79 216 0.0 0.0 0.00 0.00 0.00 92 1018.8
20260830082932 79 216 0.0 0.0 0.00 0.00 0.00 92 1018.9
20260830082832 79 216 0.0 0.0 0.00 0.00 0.00 92 1018.9
20260830082732 79 216 0.0 0.0 0.00 0.00 0.00 92 1019.0
20260830082631 79 216 0.0 0.0 0.00 0.00 0.00 92 1018.9
20260830082532 79 216 0.0 0.0 0.00 0.00 0.00 92 1018.9
20260830082432 79 216 0.0 0.0 0.00 0.00 0.00 92 1018.9
20260830082332 79 216 0.0 0.0 0.00 0.00 0.00 92 1019.0
20260830082231 79 216 0.0 0.0 0.00 0.00 0.00 92 1018.9
20260830082132 79 216 0.0 0.0 0.00 0.00 0.00 92 1018.9
20260830082031 79 216 0.0 0.0 0.00 0.00 0.00 92 1018.9
20260830081931 79 216 0.0 0.0 0.00 0.00 0.00 92 1018.9
20260830081831 79 216 0.0 0.0 0.00 0.00 0.00 92 1018.9
20260830081732 79 216 0.0 0.0 0.00 0.00 0.00 92 1018.9
20260830081631 79 216 0.0 0.0 0.00 0.00 0.00 92 1019.0
20260830081531 79 216 0.0 0.0 0.00 0.00 0.00 92 1019.0
20260830081434 79 216 0.0 0.0 0.00 0.00 0.00 93 1019.0
20260830081331 79 216 0.0 0.0 0.00 0.00 0.00 93 1019.0
20260830081231 79 216 0.0 0.0 0.00 0.00 0.00 93 1018.9
20260830081129 79 216 0.0 0.0 0.00 0.00 0.00 93 1019.0
20260830081028 79 216 0.0 0.0 0.00 0.00 0.00 93 1019.0
20260830080927 79 216 0.0 0.0 0.00 0.00 0.00 93 1018.9
20260830080825 79 216 0.0 0.0 0.00 0.00 0.00 93 1018.8
20260830080723 79 216 0.0 0.0 0.00 0.00 0.00 93 1018.9
20260830080623 78 216 0.0 0.0 0.00 0.00 0.00 93 1018.9
20260830080520 78 216 0.0 0.0 0.00 0.00 0.00 92 1018.8
20260830080419 78 216 0.0 0.0 0.00 0.00 0.00 93 1018.8
20260830080317 78 216 0.0 0.0 0.00 0.00 0.00 93 1018.8
20260830080216 78 216 0.0 0.0 0.00 0.00 0.00 92 1018.8
20260830080116 78 216 0.0 0.0 0.00 0.00 0.00 92 1018.9
20260830080011 78 216 0.0 0.0 0.00 0.00 0.00 92 1018.9
20260830075910 78 216 0.0 0.0 0.00 0.00 0.00 92 1018.9
20260830075804 78 216 0.0 0.0 0.00 0.00 0.00 92 1019.0
20260830075703 78 216 0.0 0.0 0.00 0.00 0.00 92 1018.9
20260830075603 78 216 0.0 0.0 0.00 0.00 0.00 92 1018.9
20260830075505 78 216 0.0 0.0 0.00 0.00 0.00 92 1018.9
20260830075403 78 216 0.0 0.0 0.00 0.00 0.00 92 1018.9
20260830075301 79 216 0.0 0.0 0.00 0.00 0.00 92 1018.9
20260830075202 79 216 0.0 0.0 0.00 0.00 0.00 92 1018.9
20260830075102 79 216 0.0 0.0 0.00 0.00 0.00 92 1018.9
20260830075002 79 216 0.0 0.0 0.00 0.00 0.00 92 1018.9
20260830074904 79 216 0.0 0.0 0.00 0.00 0.00 92 1018.9
20260830074805 79 216 0.0 0.0 0.00 0.00 0.00 92 1018.9
20260830074702 79 216 0.0 0.0 0.00 0.00 0.00 92 1018.9
20260830074601 79 216 0.0 0.0 0.00 0.00 0.00 92 1019.0
20260830074502 79 216 0.0 0.0 0.00 0.00 0.00 92 1018.9
20260830074402 79 216 0.0 0.0 0.00 0.00 0.00 91 1019.0
20260830074302 79 216 0.0 0.0 0.00 0.00 0.00 91 1019.0
20260830074202 79 216 0.0 0.0 0.00 0.00 0.00 91 1018.9
20260830074103 79 216 0.0 0.0 0.00 0.00 0.00 91 1018.9
20260830074002 79 216 0.0 0.0 0.00 0.00 0.00 91 1018.9
20260830073902 79 216 0.0 0.0 0.00 0.00 0.00 91 1019.0
20260830073802 79 216 0.0 0.0 0.00 0.00 0.00 91 1018.9
20260830073702 79 216 0.0 0.0 0.00 0.00 0.00 91 1018.9
20260830073603 79 216 0.0 0.0 0.00 0.00 0.00 91 1018.9
20260830073503 79 216 0.0 0.0 0.00 0.00 0.00 91 1018.9
20260830073403 79 216 0.0 0.0 0.00 0.00 0.00 91 1019.0
20260830073303 79 216 0.0 0.0 0.00 0.00 0.00 91 1019.0
20260830073202 79 216 0.0 0.0 0.00 0.00 0.00 91 1019.0
20260830073103 79 216 0.0 0.0 0.00 0.00 0.00 91 1019.1
20260830073004 79 216 0.0 0.0 0.00 0.00 0.00 91 1019.1
20260830072903 79 216 0.0 0.0 0.00 0.00 0.00 91 1019.1
20260830072802 79 216 0.0 0.0 0.00 0.00 0.00 91 1019.2
20260830072704 79 216 0.0 0.0 0.00 0.00 0.00 91 1019.2
20260830072602 79 216 0.0 0.0 0.00 0.00 0.00 91 1019.2
20260830072504 79 216 0.0 0.0 0.00 0.00 0.00 91 1019.1
20260830072403 79 216 0.0 0.0 0.00 0.00 0.00 91 1019.2
20260830072306 79 216 0.0 0.0 0.00 0.00 0.00 91 1019.2
20260830072202 79 216 0.0 0.0 0.00 0.00 0.00 91 1019.2
20260830072102 79 216 0.0 0.0 0.00 0.00 0.00 91 1019.2
20260830072004 79 216 0.0 0.0 0.00 0.00 0.00 91 1019.2
20260830071902 79 216 0.0 0.0 0.00 0.00 0.00 90 1019.2
20260830071802 79 216 0.0 0.0 0.00 0.00 0.00 90 1019.3
20260830071703 79 216 0.0 0.0 0.00 0.00 0.00 90 1019.2
20260830071602 79 216 0.0 0.0 0.00 0.00 0.00 90 1019.2
20260830071503 79 216 0.0 0.0 0.00 0.00 0.00 90 1019.3
20260830071403 79 216 0.0 0.0 0.00 0.00 0.00 90 1019.2
20260830071303 79 216 0.0 0.0 0.00 0.00 0.00 90 1019.2
20260830071204 79 216 0.0 0.0 0.00 0.00 0.00 90 1019.1
20260830071103 79 216 0.0 0.0 0.00 0.00 0.00 90 1019.2
20260830071004 79 216 0.0 0.0 0.00 0.00 0.00 90 1019.2
20260830070903 79 216 0.0 0.0 0.00 0.00 0.00 90 1019.1
20260830070802 80 216 0.0 0.0 0.00 0.00 0.00 90 1019.1
20260830070703 80 216 0.0 0.0 0.00 0.00 0.00 90 1019.1
20260830070603 80 216 0.0 0.0 0.00 0.00 0.00 90 1019.0
20260830070504 80 216 0.0 0.0 0.00 0.00 0.00 90 1019.1
20260830070402 80 216 0.0 0.0 0.00 0.00 0.00 89 1019.2
20260830070304 80 216 0.0 0.0 0.00 0.00 0.00 89 1019.1
20260830070202 80 216 0.0 0.0 0.00 0.00 0.00 89 1019.1
20260830070006 80 216 0.0 0.0 0.00 0.00 0.00 89 1019.1
20260830065903 80 216 0.0 0.0 0.00 0.00 0.00 89 1019.1
20260830065803 80 216 0.0 0.0 0.00 0.00 0.00 89 1019.0
20260830065702 80 216 0.0 0.0 0.00 0.00 0.00 89 1019.1
20260830065603 80 216 0.0 0.0 0.00 0.00 0.00 89 1019.1
20260830065502 80 216 0.0 0.0 0.00 0.00 0.00 89 1019.0
20260830065402 80 216 0.0 0.0 0.00 0.00 0.00 89 1019.1
20260830065306 80 216 0.0 0.0 0.00 0.00 0.00 89 1019.1
20260830065202 80 216 0.0 0.0 0.00 0.00 0.00 89 1019.1
20260830065103 80 216 0.0 0.0 0.00 0.00 0.00 89 1019.1
20260830065004 80 216 0.0 0.0 0.00 0.00 0.00 89 1019.1
20260830064903 80 216 0.0 0.0 0.00 0.00 0.00 89 1019.1
20260830064802 80 216 0.0 0.0 0.00 0.00 0.00 88 1019.2
20260830064702 80 216 0.0 0.0 0.00 0.00 0.00 88 1019.1
20260830064603 80 216 0.0 0.0 0.00 0.00 0.00 88 1019.1
20260830064502 80 216 0.0 0.0 0.00 0.00 0.00 88 1019.1
20260830064403 80 216 0.0 0.0 0.00 0.00 0.00 88 1019.0
20260830064304 80 216 0.0 0.0 0.00 0.00 0.00 88 1019.0
20260830064203 80 216 0.0 0.0 0.00 0.00 0.00 88 1019.0
20260830064102 80 216 0.0 0.0 0.00 0.00 0.00 87 1019.0
20260830064002 80 216 0.0 0.0 0.00 0.00 0.00 87 1019.0
20260830063903 80 216 0.0 0.0 0.00 0.00 0.00 87 1019.0
20260830063804 80 216 0.0 0.0 0.00 0.00 0.00 87 1019.0
20260830063702 80 216 0.0 0.0 0.00 0.00 0.00 87 1019.0
20260830063604 81 216 0.0 0.0 0.00 0.00 0.00 87 1019.1
20260830063503 81 216 0.0 0.0 0.00 0.00 0.00 87 1019.1
20260830063401 81 216 0.0 0.0 0.00 0.00 0.00 87 1019.1
20260830063303 81 216 0.0 0.0 0.00 0.00 0.00 87 1019.1
20260830063203 81 216 0.0 0.0 0.00 0.00 0.00 87 1019.0
20260830063103 81 216 0.0 0.0 0.00 0.00 0.00 87 1019.1
20260830063003 81 216 0.0 0.0 0.00 0.00 0.00 87 1019.0
20260830062903 81 216 0.0 0.0 0.00 0.00 0.00 87 1019.1
20260830062802 81 216 0.0 0.0 0.00 0.00 0.00 87 1019.1
20260830062703 81 216 0.0 0.0 0.00 0.00 0.00 87 1019.2
20260830062603 81 216 0.0 0.0 0.00 0.00 0.00 86 1019.2
20260830062504 81 216 0.0 0.0 0.00 0.00 0.00 86 1019.1
20260830062402 81 216 0.0 0.0 0.00 0.00 0.00 86 1019.1
20260830062305 81 216 0.0 0.0 0.00 0.00 0.00 86 1019.2
20260830062203 81 216 0.0 0.0 0.00 0.00 0.00 86 1019.1
20260830062102 81 216 0.0 0.0 0.00 0.00 0.00 86 1019.1
20260830062004 81 216 0.0 0.0 0.00 0.00 0.00 86 1019.2
20260830061903 81 216 0.0 0.0 0.00 0.00 0.00 86 1019.2
20260830061803 81 216 0.0 0.0 0.00 0.00 0.00 86 1019.2
20260830061703 81 216 0.0 0.0 0.00 0.00 0.00 86 1019.0
20260830061602 81 216 0.0 0.0 0.00 0.00 0.00 86 1019.1
20260830061504 81 216 0.0 0.0 0.00 0.00 0.00 86 1019.0
20260830061401 81 216 0.0 0.0 0.00 0.00 0.00 86 1019.1
20260830061302 81 216 0.0 0.0 0.00 0.00 0.00 86 1019.0
20260830061203 81 216 0.0 0.0 0.00 0.00 0.00 86 1019.1
20260830061103 81 216 0.0 0.0 0.00 0.00 0.00 86 1019.1
20260830061004 81 216 0.0 0.0 0.00 0.00 0.00 86 1019.0
20260830060903 81 216 0.0 0.0 0.00 0.00 0.00 86 1019.1
20260830060803 81 216 0.0 0.0 0.00 0.00 0.00 86 1019.1
20260830060703 81 216 0.0 0.0 0.00 0.00 0.00 86 1019.1
20260830060603 81 216 0.0 0.0 0.00 0.00 0.00 86 1019.1
20260830060504 81 216 0.0 0.0 0.00 0.00 0.00 86 1019.1
20260830060403 81 216 0.0 0.0 0.00 0.00 0.00 86 1019.2
20260830060301 81 216 0.0 0.0 0.00 0.00 0.00 86 1019.1
20260830060202 81 216 0.0 0.0 0.00 0.00 0.00 86 1019.1
20260830060002 81 216 0.0 0.0 0.00 0.00 0.00 86 1019.1
20260830055902 81 216 0.0 0.0 0.00 0.00 0.00 86 1019.1
20260830055803 81 216 0.0 0.0 0.00 0.00 0.00 86 1019.1
20260830055702 81 216 0.0 0.0 0.00 0.00 0.00 86 1019.1
20260830055603 81 216 0.0 0.0 0.00 0.00 0.00 85 1019.0
20260830055504 81 216 0.0 0.0 0.00 0.00 0.00 85 1018.9
20260830055402 81 216 0.0 0.0 0.00 0.00 0.00 85 1019.0
20260830055301 81 216 0.0 0.0 0.00 0.00 0.00 85 1019.0
20260830055203 81 216 0.0 0.0 0.00 0.00 0.00 85 1019.0
20260830055103 81 216 0.0 0.0 0.00 0.00 0.00 85 1019.0
20260830055003 81 216 0.0 0.0 0.00 0.00 0.00 85 1019.0
20260830054902 81 216 0.0 0.0 0.00 0.00 0.00 85 1019.1
20260830054803 81 216 0.0 0.0 0.00 0.00 0.00 85 1019.0
20260830054702 81 216 0.0 0.0 0.00 0.00 0.00 85 1018.9
20260830054603 81 216 0.0 0.0 0.00 0.00 0.00 85 1019.0
20260830054503 81 216 0.0 0.0 0.00 0.00 0.00 85 1019.0
20260830054402 81 216 0.0 0.0 0.00 0.00 0.00 85 1019.0
20260830054302 81 216 0.0 0.0 0.00 0.00 0.00 85 1019.0
20260830054201 81 216 0.0 0.0 0.00 0.00 0.00 86 1019.0
20260830054103 81 216 0.0 0.0 0.00 0.00 0.00 86 1019.0
20260830054002 81 216 0.0 0.0 0.00 0.00 0.00 86 1019.1
20260830053902 81 216 0.0 0.0 0.00 0.00 0.00 86 1019.0
20260830053804 81 216 0.0 0.0 0.00 0.00 0.00 86 1019.1
20260830053702 81 216 0.0 0.0 0.00 0.00 0.00 86 1019.0
20260830053601 81 216 0.0 0.0 0.00 0.00 0.00 86 1019.0
20260830053503 81 216 0.0 0.0 0.00 0.00 0.00 86 1019.0
20260830053402 81 216 0.0 0.0 0.00 0.00 0.00 86 1019.0
20260830053302 81 216 0.0 0.0 0.00 0.00 0.00 86 1019.0
20260830053202 81 216 0.0 0.0 0.00 0.00 0.00 86 1019.0
20260830053104 81 216 0.0 0.0 0.00 0.00 0.00 86 1019.0
20260830053002 81 216 0.0 0.0 0.00 0.00 0.00 86 1019.0
20260830052900 81 216 0.0 0.0 0.00 0.00 0.00 86 1019.0
20260830052757 81 216 0.0 0.0 0.00 0.00 0.00 86 1019.0
20260830052658 81 216 0.0 0.0 0.00 0.00 0.00 86 1019.0
20260830052557 81 216 0.0 0.9 0.00 0.00 0.00 86 1018.9
20260830052455 81 216 0.0 0.9 0.00 0.00 0.00 86 1019.0
20260830052353 81 216 0.0 0.9 0.00 0.00 0.00 87 1019.0
20260830052248 81 216 0.0 0.9 0.00 0.00 0.00 87 1019.0
20260830052149 81 216 0.0 0.9 0.00 0.00 0.00 87 1019.1
20260830052049 81 216 0.0 0.9 0.00 0.00 0.00 87 1019.0
20260830051948 81 216 0.0 0.9 0.00 0.00 0.00 87 1019.1
20260830051847 81 216 0.0 0.9 0.00 0.00 0.00 87 1019.1
20260830051749 81 216 0.0 0.9 0.00 0.00 0.00 87 1018.9
20260830051648 81 216 0.0 0.9 0.00 0.00 0.00 86 1018.9
20260830051548 81 216 0.0 0.9 0.00 0.00 0.00 87 1018.8
20260830051447 81 216 0.0 0.9 0.00 0.00 0.00 87 1018.8
20260830051349 81 216 0.0 0.9 0.00 0.00 0.00 86 1018.9
20260830051247 81 216 0.0 0.9 0.00 0.00 0.00 86 1018.9
20260830051147 81 216 0.0 0.9 0.00 0.00 0.00 86 1018.9
20260830051049 81 216 0.0 0.9 0.00 0.00 0.00 87 1018.9
20260830050949 81 216 0.0 0.9 0.00 0.00 0.00 87 1019.0
20260830050847 81 216 0.0 0.9 0.00 0.00 0.00 86 1019.0
20260830050747 81 216 0.0 0.9 0.00 0.00 0.00 86 1019.0
20260830050649 81 216 0.0 0.9 0.00 0.00 0.00 86 1019.0
20260830050547 81 216 0.0 0.9 0.00 0.00 0.00 86 1019.0
20260830050447 81 216 0.0 0.9 0.00 0.00 0.00 86 1019.0
20260830050349 81 216 0.0 0.9 0.00 0.00 0.00 86 1019.0
20260830050247 81 216 0.0 0.9 0.00 0.00 0.00 86 1019.0
20260830050147 81 216 0.0 0.9 0.00 0.00 0.00 86 1019.0
20260830050047 81 216 0.0 0.9 0.00 0.00 0.00 87 1019.0
20260830045947 81 216 0.0 0.9 0.00 0.00 0.00 87 1019.0
20260830045847 81 216 0.0 0.9 0.00 0.00 0.00 87 1019.0
20260830045746 81 216 0.0 0.9 0.00 0.00 0.00 87 1019.0
20260830045645 81 216 0.0 0.9 0.00 0.00 0.00 87 1019.0
20260830045543 81 216 0.0 0.9 0.00 0.00 0.00 87 1019.0
20260830045441 81 216 0.0 0.9 0.00 0.00 0.00 87 1019.0
20260830045339 81 216 0.0 0.9 0.00 0.00 0.00 87 1018.9
20260830045239 81 216 0.0 0.0 0.00 0.00 0.00 87 1019.0
20260830045138 81 216 0.0 0.0 0.00 0.00 0.00 87 1019.1
20260830045036 81 216 0.0 0.0 0.00 0.00 0.00 86 1019.0
20260830044935 81 216 0.0 0.9 0.00 0.00 0.00 86 1019.0
20260830044832 82 216 0.0 0.9 0.00 0.00 0.00 86 1019.1
20260830044731 82 216 0.0 0.9 0.00 0.00 0.00 86 1019.0
20260830044631 82 216 0.0 1.7 0.00 0.00 0.00 86 1019.0
20260830044533 82 216 0.0 1.7 0.00 0.00 0.00 86 1018.9
20260830044433 82 216 0.0 1.7 0.00 0.00 0.00 86 1018.9
20260830044331 82 216 0.0 1.7 0.00 0.00 0.00 86 1018.9
20260830044233 82 216 0.0 1.7 0.00 0.00 0.00 86 1018.9
20260830044132 82 216 0.0 1.7 0.00 0.00 0.00 86 1018.9
20260830044031 82 216 0.0 1.7 0.00 0.00 0.00 86 1018.9
20260830043932 82 216 0.0 1.7 0.00 0.00 0.00 86 1019.0
20260830043833 82 216 0.0 1.7 0.00 0.00 0.00 86 1019.0
20260830043731 82 216 0.0 1.7 0.00 0.00 0.00 86 1019.1
20260830043631 82 216 0.0 1.7 0.00 0.00 0.00 86 1019.0
20260830043533 82 216 0.0 1.7 0.00 0.00 0.00 86 1018.9
20260830043432 82 216 0.0 1.7 0.00 0.00 0.00 85 1019.0
20260830043331 82 216 0.0 1.7 0.00 0.00 0.00 86 1018.9
20260830043232 82 216 0.0 1.7 0.00 0.00 0.00 86 1019.1
20260830043131 82 216 0.0 1.7 0.00 0.00 0.00 85 1019.0
20260830043032 82 216 0.0 1.7 0.00 0.00 0.00 86 1019.0
20260830042932 82 216 0.0 1.7 0.00 0.00 0.00 85 1019.0
20260830042833 82 216 0.0 1.7 0.00 0.00 0.00 85 1019.0
20260830042730 82 216 0.0 0.9 0.00 0.00 0.00 85 1018.9
20260830042629 82 223 0.0 0.9 0.00 0.00 0.00 85 1019.0
20260830042527 82 223 0.0 0.9 0.00 0.00 0.00 85 1019.0
20260830042427 82 223 0.0 0.9 0.00 0.00 0.00 85 1019.0
20260830042325 82 223 0.0 0.9 0.00 0.00 0.00 84 1019.0
20260830042224 82 223 0.0 0.9 0.00 0.00 0.00 84 1019.0
20260830042122 82 223 0.0 0.9 0.00 0.00 0.00 84 1019.0
20260830042022 83 223 0.0 1.7 0.00 0.00 0.00 84 1019.0
20260830041920 83 223 0.0 1.7 0.00 0.00 0.00 84 1019.1
20260830041818 83 223 0.0 1.7 0.00 0.00 0.00 84 1019.1
20260830041717 83 223 0.0 1.7 0.00 0.00 0.00 84 1019.0
20260830041616 83 223 0.0 1.7 0.00 0.00 0.00 84 1019.1
20260830041516 83 223 0.0 1.7 0.00 0.00 0.00 84 1019.1
20260830041412 83 223 0.0 3.5 0.00 0.00 0.00 84 1019.0
20260830041311 83 223 0.0 3.5 0.00 0.00 0.00 84 1019.0
20260830041209 83 223 0.0 3.5 0.00 0.00 0.00 84 1018.9
20260830041107 83 223 0.9 3.5 0.00 0.00 0.00 84 1018.9
20260830041007 83 223 0.0 3.5 0.00 0.00 0.00 84 1018.9
20260830040906 83 223 0.0 3.5 0.00 0.00 0.00 84 1018.9
20260830040805 83 223 0.0 3.5 0.00 0.00 0.00 84 1019.0
20260830040702 83 223 0.9 3.5 0.00 0.00 0.00 84 1018.9
20260830040602 83 221 0.9 3.5 0.00 0.00 0.00 84 1019.0
20260830040504 83 183 0.0 1.7 0.00 0.00 0.00 84 1018.9
20260830040403 83 183 0.0 2.6 0.00 0.00 0.00 84 1019.0
20260830040302 83 183 0.0 2.6 0.00 0.00 0.00 84 1019.1
20260830040203 83 183 0.9 2.6 0.00 0.00 0.00 84 1019.0
20260830040002 83 183 0.9 2.6 0.00 0.00 0.00 84 1019.0
20260830035904 83 183 0.9 2.6 0.00 0.00 0.00 84 1019.0
20260830035803 83 183 0.9 2.6 0.00 0.00 0.00 84 1019.1
20260830035702 83 183 0.9 2.6 0.00 0.00 0.00 84 1019.0
20260830035602 83 183 0.9 2.6 0.00 0.00 0.00 84 1019.0
20260830035504 83 182 0.0 2.6 0.00 0.00 0.00 84 1019.0
20260830035402 83 228 0.9 1.7 0.00 0.00 0.00 85 1019.0
20260830035306 83 228 0.0 1.7 0.00 0.00 0.00 85 1019.0
20260830035203 83 223 0.0 0.0 0.00 0.00 0.00 85 1019.0
20260830035102 83 223 0.0 0.0 0.00 0.00 0.00 85 1019.0
20260830035002 83 223 0.0 0.0 0.00 0.00 0.00 85 1018.9
20260830034902 83 223 0.0 0.0 0.00 0.00 0.00 85 1019.0
20260830034803 83 223 0.0 0.0 0.00 0.00 0.00 85 1019.0
20260830034703 83 223 0.0 0.0 0.00 0.00 0.00 85 1018.9
20260830034603 83 223 0.0 0.0 0.00 0.00 0.00 85 1018.9
20260830034504 83 223 0.0 0.0 0.00 0.00 0.00 85 1018.9
20260830034402 83 223 0.0 0.0 0.00 0.00 0.00 85 1018.9
20260830034303 83 223 0.0 0.0 0.00 0.00 0.00 85 1019.0